Observation data for Welch on 12/06/2019      Previous  Date       Current Mesonet Observations  Soil Data  Daily Summary Page  Observations in Plain Language
KWE2 060600Z 00007KT 08/01 A3017 RMK A01 T00830009  RH  060%=      5-min Rain = 0
KWE2 060601Z 00007KT 08/01 A3017 RMK A01 T00820009  RH  060%=      5-min Rain = 0
KWE2 060602Z 00008KT 08/01 A3018 RMK A01 T00810009  RH  060%=      5-min Rain = 0
KWE2 060603Z 00008KT 08/01 A3018 RMK A01 T00810009  RH  060%=      5-min Rain = 0
KWE2 060604Z 00008KT 08/01 A3018 RMK A01 T00820009  RH  060%=      5-min Rain = 0
KWE2 060605Z 00008KT 08/01 A3018 RMK A01 T00810008  RH  060%=      5-min Rain = 0
KWE2 060606Z 00008KT 08/01 A3018 RMK A01 T00820009  RH  060%=      5-min Rain = 0
KWE2 060607Z 00008KT 08/01 A3018 RMK A01 T00810009  RH  060%=      5-min Rain = 0
KWE2 060608Z 36008KT 08/01 A3018 RMK A01 T00810009  RH  060%=      5-min Rain = 0
KWE2 060609Z 36008KT 08/01 A3018 RMK A01 T00810009  RH  060%=      5-min Rain = 0
KWE2 060610Z 36007KT 08/01 A3018 RMK A01 T00810009  RH  060%=      5-min Rain = 0
KWE2 060611Z 36007KT 08/01 A3018 RMK A01 T00810008  RH  060%=      5-min Rain = 0
KWE2 060612Z 35007KT 08/01 A3018 RMK A01 T00810009  RH  060%=      5-min Rain = 0
KWE2 060613Z 35008KT 08/01 A3018 RMK A01 T00810009  RH  060%=      5-min Rain = 0
KWE2 060614Z 00008KT 08/01 A3018 RMK A01 T00810009  RH  060%=      5-min Rain = 0
KWE2 060615Z 36008KT 08/01 A3018 RMK A01 T00810009  RH  060%=      5-min Rain = 0
KWE2 060616Z 35008KT 08/01 A3018 RMK A01 T00810009  RH  060%=      5-min Rain = 0
KWE2 060617Z 36009KT 08/01 A3018 RMK A01 T00810009  RH  060%=      5-min Rain = 0
KWE2 060618Z 36009KT 08/01 A3018 RMK A01 T00810008  RH  060%=      5-min Rain = 0
KWE2 060619Z 36009KT 08/01 A3018 RMK A01 T00810008  RH  060%=      5-min Rain = 0
KWE2 060620Z 00009KT 08/01 A3018 RMK A01 T00810008  RH  060%=      5-min Rain = 0
KWE2 060621Z 36009KT 08/01 A3018 RMK A01 T00820008  RH  060%=      5-min Rain = 0
KWE2 060622Z 36009KT 08/01 A3018 RMK A01 T00820008  RH  060%=      5-min Rain = 0
KWE2 060623Z 36009KT 08/01 A3018 RMK A01 T00820008  RH  060%=      5-min Rain = 0
KWE2 060624Z 00010KT 08/01 A3018 RMK A01 T00820008  RH  060%=      5-min Rain = 0
KWE2 060625Z 36010KT 08/01 A3018 RMK A01 T00820009  RH  060%=      5-min Rain = 0
KWE2 060626Z 00009KT 08/01 A3019 RMK A01 T00820009  RH  060%=      5-min Rain = 0
KWE2 060627Z 00010KT 08/01 A3019 RMK A01 T00820009  RH  060%=      5-min Rain = 0
KWE2 060628Z 00010KT 08/01 A3019 RMK A01 T00820009  RH  060%=      5-min Rain = 0
KWE2 060629Z 00009KT 08/01 A3019 RMK A01 T00820009  RH  060%=      5-min Rain = 0
KWE2 060630Z 00009KT 08/01 A3019 RMK A01 T00810009  RH  060%=      5-min Rain = 0
KWE2 060631Z 00009KT 08/01 A3019 RMK A01 T00820009  RH  060%=      5-min Rain = 0
KWE2 060632Z 00009KT 08/01 A3019 RMK A01 T00810009  RH  060%=      5-min Rain = 0
KWE2 060633Z 00009KT 08/01 A3019 RMK A01 T00810009  RH  060%=      5-min Rain = 0
KWE2 060634Z 00009KT 08/01 A3019 RMK A01 T00810009  RH  060%=      5-min Rain = 0
KWE2 060635Z 00009KT 08/01 A3019 RMK A01 T00820009  RH  060%=      5-min Rain = 0
KWE2 060636Z 01009KT 08/01 A3019 RMK A01 T00820008  RH  060%=      5-min Rain = 0
KWE2 060637Z 00009KT 08/01 A3019 RMK A01 T00820008  RH  060%=      5-min Rain = 0
KWE2 060638Z 00009KT 08/01 A3019 RMK A01 T00820008  RH  060%=      5-min Rain = 0
KWE2 060639Z 00009KT 08/01 A3019 RMK A01 T00820008  RH  060%=      5-min Rain = 0
KWE2 060640Z 01009KT 08/01 A3019 RMK A01 T00830008  RH  059%=      5-min Rain = 0
KWE2 060641Z 01009KT 08/01 A3019 RMK A01 T00830008  RH  059%=      5-min Rain = 0
KWE2 060642Z 00010KT 08/01 A3019 RMK A01 T00830009  RH  059%=      5-min Rain = 0
KWE2 060643Z 01010KT 08/01 A3019 RMK A01 T00840009  RH  059%=      5-min Rain = 0
KWE2 060644Z 01010KT 09/01 A3019 RMK A01 T00850009  RH  059%=      5-min Rain = 0
KWE2 060645Z 01009KT 09/01 A3019 RMK A01 T00850008  RH  059%=      5-min Rain = 0
KWE2 060646Z 00010KT 09/01 A3019 RMK A01 T00860009  RH  058%=      5-min Rain = 0
KWE2 060647Z 01009KT 09/01 A3019 RMK A01 T00860009  RH  058%=      5-min Rain = 0
KWE2 060648Z 00010KT 09/01 A3019 RMK A01 T00860009  RH  058%=      5-min Rain = 0
KWE2 060649Z 01010KT 09/01 A302 RMK A01 T00860008  RH  058%=      5-min Rain = 0
KWE2 060650Z 00011KT 09/01 A302 RMK A01 T00850009  RH  059%=      5-min Rain = 0
KWE2 060651Z 01011KT 09/01 A302 RMK A01 T00850009  RH  059%=      5-min Rain = 0
KWE2 060652Z 01011KT 09/01 A302 RMK A01 T00850009  RH  059%=      5-min Rain = 0
KWE2 060653Z 01011KT 09/01 A302 RMK A01 T00850009  RH  059%=      5-min Rain = 0
KWE2 060654Z 00011KT 09/01 A302 RMK A01 T00850009  RH  059%=      5-min Rain = 0
KWE2 060655Z 00011KT 09/01 A302 RMK A01 T00850009  RH  059%=      5-min Rain = 0
KWE2 060656Z 00011KT 08/01 A302 RMK A01 T00840008  RH  059%=      5-min Rain = 0
KWE2 060657Z 00010KT 09/01 A302 RMK A01 T00850009  RH  059%=      5-min Rain = 0
KWE2 060658Z 01012KT 08/01 A302 RMK A01 T00840009  RH  059%=      5-min Rain = 0
KWE2 060659Z 00011KT 08/01 A302 RMK A01 T00840009  RH  059%=      5-min Rain = 0
KWE2 060700Z 00012KT 08/01 A302 RMK A01 T00840009  RH  059%=      5-min Rain = 0
KWE2 060701Z 00011KT 08/01 A302 RMK A01 T00840009  RH  059%=      5-min Rain = 0
KWE2 060702Z 00011KT 08/01 A302 RMK A01 T00840009  RH  059%=      5-min Rain = 0
KWE2 060703Z 00011KT 08/01 A302 RMK A01 T00840009  RH  059%=      5-min Rain = 0
KWE2 060704Z 00011KT 08/01 A302 RMK A01 T00840009  RH  059%=      5-min Rain = 0
KWE2 060705Z 00011KT 08/01 A302 RMK A01 T00840009  RH  059%=      5-min Rain = 0
KWE2 060706Z 01012KT 08/01 A302 RMK A01 T00840009  RH  059%=      5-min Rain = 0
KWE2 060707Z 00012KT 08/01 A302 RMK A01 T00840009  RH  059%=      5-min Rain = 0
KWE2 060708Z 00011KT 08/01 A302 RMK A01 T00840009  RH  059%=      5-min Rain = 0
KWE2 060709Z 01012KT 08/01 A302 RMK A01 T00840009  RH  059%=      5-min Rain = 0
KWE2 060710Z 00011KT 08/01 A302 RMK A01 T00840009  RH  059%=      5-min Rain = 0
KWE2 060711Z 00012KT 08/01 A302 RMK A01 T00840009  RH  059%=      5-min Rain = 0
KWE2 060712Z 00013KT 08/01 A302 RMK A01 T00840009  RH  059%=      5-min Rain = 0
KWE2 060713Z 00013KT 08/01 A3021 RMK A01 T00840009  RH  059%=      5-min Rain = 0
KWE2 060714Z 36012KT 08/01 A3021 RMK A01 T00840010  RH  059%=      5-min Rain = 0
KWE2 060715Z 00012KT 09/01 A3021 RMK A01 T00850010  RH  059%=      5-min Rain = 0
KWE2 060716Z 00012KT 09/01 A3021 RMK A01 T00850010  RH  059%=      5-min Rain = 0
KWE2 060717Z 00012KT 09/01 A3021 RMK A01 T00850010  RH  059%=      5-min Rain = 0
KWE2 060718Z 01010KT 09/01 A3021 RMK A01 T00850010  RH  059%=      5-min Rain = 0
KWE2 060719Z 00011KT 09/01 A3021 RMK A01 T00850010  RH  059%=      5-min Rain = 0
KWE2 060720Z 00010KT 08/01 A3021 RMK A01 T00840010  RH  060%=      5-min Rain = 0
KWE2 060721Z 00010KT 08/01 A3021 RMK A01 T00830010  RH  060%=      5-min Rain = 0
KWE2 060722Z 00010KT 08/01 A3021 RMK A01 T00830010  RH  060%=      5-min Rain = 0
KWE2 060723Z 00010KT 08/01 A3021 RMK A01 T00820010  RH  061%=      5-min Rain = 0
KWE2 060724Z 36010KT 08/01 A3021 RMK A01 T00810010  RH  061%=      5-min Rain = 0
KWE2 060725Z 36009KT 08/01 A3021 RMK A01 T00810010  RH  061%=      5-min Rain = 0
KWE2 060726Z 36007KT 08/01 A3021 RMK A01 T00810010  RH  061%=      5-min Rain = 0
KWE2 060727Z 36007KT 08/01 A3021 RMK A01 T00800010  RH  061%=      5-min Rain = 0
KWE2 060728Z 36007KT 08/01 A3021 RMK A01 T00790010  RH  062%=      5-min Rain = 0
KWE2 060729Z 36006KT 08/01 A3021 RMK A01 T00790010  RH  062%=      5-min Rain = 0
KWE2 060730Z 36006KT 08/01 A3022 RMK A01 T00780010  RH  062%=      5-min Rain = 0
KWE2 060731Z 36006KT 08/01 A3022 RMK A01 T00770010  RH  062%=      5-min Rain = 0
KWE2 060732Z 00006KT 08/01 A3022 RMK A01 T00770010  RH  063%=      5-min Rain = 0
KWE2 060733Z 35005KT 08/01 A3022 RMK A01 T00760010  RH  063%=      5-min Rain = 0
KWE2 060734Z 36005KT 08/01 A3022 RMK A01 T00760010  RH  063%=      5-min Rain = 0
KWE2 060735Z 36006KT 08/01 A3022 RMK A01 T00750010  RH  063%=      5-min Rain = 0
KWE2 060736Z 35006KT 08/01 A3022 RMK A01 T00750010  RH  063%=      5-min Rain = 0
KWE2 060737Z 35006KT 07/01 A3022 RMK A01 T00740010  RH  064%=      5-min Rain = 0
KWE2 060738Z 35006KT 07/01 A3022 RMK A01 T00730010  RH  064%=      5-min Rain = 0
KWE2 060739Z 35007KT 07/01 A3022 RMK A01 T00720010  RH  064%=      5-min Rain = 0
KWE2 060740Z 35006KT 07/01 A3022 RMK A01 T00720010  RH  065%=      5-min Rain = 0
KWE2 060741Z 34006KT 07/01 A3022 RMK A01 T00710010  RH  065%=      5-min Rain = 0
KWE2 060742Z 34007KT 07/01 A3022 RMK A01 T00710010  RH  065%=      5-min Rain = 0
KWE2 060743Z 35006KT 07/01 A3022 RMK A01 T00710011  RH  066%=      5-min Rain = 0
KWE2 060744Z 34006KT 07/01 A3023 RMK A01 T00710011  RH  066%=      5-min Rain = 0
KWE2 060745Z 34008KT 07/01 A3023 RMK A01 T00710012  RH  066%=      5-min Rain = 0
KWE2 060746Z 35007KT 07/01 A3023 RMK A01 T00730013  RH  065%=      5-min Rain = 0
KWE2 060747Z 35006KT 07/01 A3023 RMK A01 T00740013  RH  065%=      5-min Rain = 0
KWE2 060748Z 35006KT 07/01 A3023 RMK A01 T00730012  RH  065%=      5-min Rain = 0
KWE2 060749Z 34006KT 07/01 A3023 RMK A01 T00740013  RH  065%=      5-min Rain = 0
KWE2 060750Z 35008KT 07/01 A3023 RMK A01 T00740013  RH  065%=      5-min Rain = 0
KWE2 060751Z 35007KT 07/01 A3023 RMK A01 T00740013  RH  065%=      5-min Rain = 0
KWE2 060752Z 35008KT 07/01 A3023 RMK A01 T00740013  RH  065%=      5-min Rain = 0
KWE2 060753Z 36009KT 07/01 A3023 RMK A01 T00740013  RH  065%=      5-min Rain = 0
KWE2 060754Z 36009KT 07/01 A3023 RMK A01 T00740013  RH  065%=      5-min Rain = 0
KWE2 060755Z 35010KT 08/01 A3023 RMK A01 T00750013  RH  065%=      5-min Rain = 0
KWE2 060756Z 35010KT 08/01 A3023 RMK A01 T00750014  RH  065%=      5-min Rain = 0
KWE2 060757Z 35010KT 08/01 A3023 RMK A01 T00750014  RH  065%=      5-min Rain = 0
KWE2 060758Z 35010KT 08/01 A3023 RMK A01 T00750014  RH  065%=      5-min Rain = 0
KWE2 060759Z 35009KT 07/01 A3023 RMK A01 T00740014  RH  065%=      5-min Rain = 0
KWE2 060800Z 35010KT 07/01 A3023 RMK A01 T00740014  RH  066%=      5-min Rain = 0
KWE2 060801Z 35010KT 07/01 A3023 RMK A01 T00740014  RH  066%=      5-min Rain = 0
KWE2 060802Z 35009KT 07/01 A3023 RMK A01 T00730014  RH  066%=      5-min Rain = 0
KWE2 060803Z 35011KT 07/01 A3023 RMK A01 T00730014  RH  066%=      5-min Rain = 0
KWE2 060804Z 35010KT 07/01 A3023 RMK A01 T00730014  RH  066%=      5-min Rain = 0
KWE2 060805Z 35011KT 07/02 A3023 RMK A01 T00730015  RH  066%=      5-min Rain = 0
KWE2 060806Z 35010KT 07/02 A3023 RMK A01 T00730015  RH  067%=      5-min Rain = 0
KWE2 060807Z 35010KT 07/02 A3023 RMK A01 T00730015  RH  067%=      5-min Rain = 0
KWE2 060808Z 34010KT 07/01 A3023 RMK A01 T00720014  RH  067%=      5-min Rain = 0
KWE2 060809Z 34009KT 07/02 A3023 RMK A01 T00720015  RH  067%=      5-min Rain = 0
KWE2 060810Z 35011KT 07/02 A3023 RMK A01 T00710015  RH  067%=      5-min Rain = 0
KWE2 060811Z 34011G16KT 07/02 A3023 RMK A01 T00710016  RH  068%=      5-min Rain = 0
KWE2 060812Z 35012KT 07/02 A3023 RMK A01 T00720016  RH  068%=      5-min Rain = 0
KWE2 060813Z 35013KT 07/02 A3023 RMK A01 T00720017  RH  068%=      5-min Rain = 0
KWE2 060814Z 35012KT 07/02 A3023 RMK A01 T00720017  RH  068%=      5-min Rain = 0
KWE2 060815Z 35012KT 07/02 A3024 RMK A01 T00720017  RH  068%=      5-min Rain = 0
KWE2 060816Z 35011KT 07/02 A3024 RMK A01 T00720018  RH  068%=      5-min Rain = 0
KWE2 060817Z 35011KT 07/02 A3024 RMK A01 T00720018  RH  068%=      5-min Rain = 0
KWE2 060818Z 35011KT 07/02 A3024 RMK A01 T00720018  RH  069%=      5-min Rain = 0
KWE2 060819Z 35011KT 07/02 A3024 RMK A01 T00720018  RH  069%=      5-min Rain = 0
KWE2 060820Z 35010KT 07/02 A3024 RMK A01 T00720018  RH  069%=      5-min Rain = 0
KWE2 060821Z 35010KT 07/02 A3024 RMK A01 T00710018  RH  069%=      5-min Rain = 0
KWE2 060822Z 35010KT 07/02 A3024 RMK A01 T00710018  RH  069%=      5-min Rain = 0
KWE2 060823Z 35010KT 07/02 A3024 RMK A01 T00700018  RH  069%=      5-min Rain = 0
KWE2 060824Z 35012KT 07/02 A3024 RMK A01 T00700018  RH  070%=      5-min Rain = 0
KWE2 060825Z 35010KT 07/02 A3024 RMK A01 T00700018  RH  070%=      5-min Rain = 0
KWE2 060826Z 35009KT 07/02 A3023 RMK A01 T00700018  RH  070%=      5-min Rain = 0
KWE2 060827Z 34010KT 07/02 A3024 RMK A01 T00690018  RH  070%=      5-min Rain = 0
KWE2 060828Z 35010KT 07/02 A3024 RMK A01 T00680018  RH  070%=      5-min Rain = 0
KWE2 060829Z 34009KT 07/02 A3024 RMK A01 T00680018  RH  071%=      5-min Rain = 0
KWE2 060830Z 34009KT 07/02 A3024 RMK A01 T00670018  RH  071%=      5-min Rain = 0
KWE2 060831Z 34009KT 07/02 A3024 RMK A01 T00670018  RH  071%=      5-min Rain = 0
KWE2 060832Z 34009KT 07/02 A3024 RMK A01 T00670019  RH  071%=      5-min Rain = 0
KWE2 060833Z 34009KT 07/02 A3024 RMK A01 T00670019  RH  071%=      5-min Rain = 0
KWE2 060834Z 35009KT 07/02 A3024 RMK A01 T00660019  RH  072%=      5-min Rain = 0
KWE2 060835Z 35009KT 07/02 A3024 RMK A01 T00660019  RH  072%=      5-min Rain = 0
KWE2 060836Z 35009KT 07/02 A3024 RMK A01 T00660019  RH  072%=      5-min Rain = 0
KWE2 060837Z 34009KT 07/02 A3024 RMK A01 T00650019  RH  072%=      5-min Rain = 0
KWE2 060838Z 35009KT 07/02 A3024 RMK A01 T00650020  RH  073%=      5-min Rain = 0
KWE2 060839Z 35009KT 07/02 A3024 RMK A01 T00650020  RH  073%=      5-min Rain = 0
KWE2 060840Z 34010KT 07/02 A3024 RMK A01 T00650020  RH  073%=      5-min Rain = 0
KWE2 060841Z 34009KT 07/02 A3024 RMK A01 T00650020  RH  073%=      5-min Rain = 0
KWE2 060842Z 34009KT 06/02 A3024 RMK A01 T00640020  RH  073%=      5-min Rain = 0
KWE2 060843Z 34010KT 06/02 A3024 RMK A01 T00640020  RH  073%=      5-min Rain = 0
KWE2 060844Z 34009KT 06/02 A3024 RMK A01 T00640020  RH  074%=      5-min Rain = 0
KWE2 060845Z 34010KT 06/02 A3024 RMK A01 T00630020  RH  074%=      5-min Rain = 0
KWE2 060846Z 34009KT 06/02 A3024 RMK A01 T00640021  RH  074%=      5-min Rain = 0
KWE2 060847Z 34010KT 06/02 A3024 RMK A01 T00630021  RH  074%=      5-min Rain = 0
KWE2 060848Z 34009KT 06/02 A3024 RMK A01 T00630021  RH  074%=      5-min Rain = 0
KWE2 060849Z 34010KT 06/02 A3024 RMK A01 T00620020  RH  075%=      5-min Rain = 0
KWE2 060850Z 34009KT 06/02 A3024 RMK A01 T00620021  RH  075%=      5-min Rain = 0
KWE2 060851Z 34010KT 06/02 A3025 RMK A01 T00620021  RH  075%=      5-min Rain = 0
KWE2 060852Z 34010KT 06/02 A3025 RMK A01 T00610021  RH  075%=      5-min Rain = 0
KWE2 060853Z 34009KT 06/02 A3025 RMK A01 T00610021  RH  076%=      5-min Rain = 0
KWE2 060854Z 34009KT 06/02 A3025 RMK A01 T00610021  RH  076%=      5-min Rain = 0
KWE2 060855Z 34009KT 06/02 A3024 RMK A01 T00610022  RH  076%=      5-min Rain = 0
KWE2 060856Z 34009KT 06/02 A3024 RMK A01 T00600021  RH  076%=      5-min Rain = 0
KWE2 060857Z 34010KT 06/02 A3024 RMK A01 T00610022  RH  076%=      5-min Rain = 0
KWE2 060858Z 34010KT 06/02 A3024 RMK A01 T00600022  RH  076%=      5-min Rain = 0
KWE2 060859Z 34010KT 06/02 A3024 RMK A01 T00600022  RH  076%=      5-min Rain = 0
KWE2 060900Z 34009KT 06/02 A3025 RMK A01 T00600021  RH  076%=      5-min Rain = 0
KWE2 060901Z 34010KT 06/02 A3025 RMK A01 T00590021  RH  077%=      5-min Rain = 0
KWE2 060902Z 34009KT 06/02 A3025 RMK A01 T00590022  RH  077%=      5-min Rain = 0
KWE2 060903Z 34009KT 06/02 A3025 RMK A01 T00590021  RH  077%=      5-min Rain = 0
KWE2 060904Z 34009KT 06/02 A3025 RMK A01 T00590021  RH  077%=      5-min Rain = 0
KWE2 060905Z 34009KT 06/02 A3025 RMK A01 T00580021  RH  077%=      5-min Rain = 0
KWE2 060906Z 35007KT 06/02 A3025 RMK A01 T00570021  RH  077%=      5-min Rain = 0
KWE2 060907Z 34008KT 06/02 A3025 RMK A01 T00570021  RH  078%=      5-min Rain = 0
KWE2 060908Z 34009KT 06/02 A3025 RMK A01 T00560021  RH  078%=      5-min Rain = 0
KWE2 060909Z 34010KT 06/02 A3025 RMK A01 T00560021  RH  078%=      5-min Rain = 0
KWE2 060910Z 34010KT 06/02 A3025 RMK A01 T00560021  RH  078%=      5-min Rain = 0
KWE2 060911Z 34011KT 06/02 A3025 RMK A01 T00560021  RH  078%=      5-min Rain = 0
KWE2 060912Z 34011KT 06/02 A3024 RMK A01 T00570022  RH  078%=      5-min Rain = 0
KWE2 060913Z 34010KT 06/02 A3024 RMK A01 T00570022  RH  078%=      5-min Rain = 0
KWE2 060914Z 34010KT 06/02 A3024 RMK A01 T00580022  RH  078%=      5-min Rain = 0
KWE2 060915Z 33011KT 06/02 A3024 RMK A01 T00580022  RH  078%=      5-min Rain = 0
KWE2 060916Z 34011KT 06/02 A3024 RMK A01 T00580022  RH  078%=      5-min Rain = 0
KWE2 060917Z 34012KT 06/02 A3024 RMK A01 T00580022  RH  078%=      5-min Rain = 0
KWE2 060918Z 34011KT 06/02 A3024 RMK A01 T00580022  RH  078%=      5-min Rain = 0
KWE2 060919Z 34011KT 06/02 A3024 RMK A01 T00580022  RH  078%=      5-min Rain = 0
KWE2 060920Z 34010KT 06/02 A3024 RMK A01 T00570022  RH  078%=      5-min Rain = 0
KWE2 060921Z 34010KT 06/02 A3025 RMK A01 T00570022  RH  078%=      5-min Rain = 0
KWE2 060922Z 34009KT 06/02 A3025 RMK A01 T00560022  RH  079%=      5-min Rain = 0
KWE2 060923Z 33010KT 06/02 A3025 RMK A01 T00560022  RH  079%=      5-min Rain = 0
KWE2 060924Z 34010KT 06/02 A3025 RMK A01 T00550022  RH  079%=      5-min Rain = 0
KWE2 060925Z 34010KT 06/02 A3025 RMK A01 T00550022  RH  079%=      5-min Rain = 0
KWE2 060926Z 34010KT 06/02 A3025 RMK A01 T00550021  RH  079%=      5-min Rain = 0
KWE2 060927Z 34011KT 06/02 A3025 RMK A01 T00550022  RH  079%=      5-min Rain = 0
KWE2 060928Z 34011KT 06/02 A3025 RMK A01 T00550022  RH  079%=      5-min Rain = 0
KWE2 060929Z 34011KT 06/02 A3025 RMK A01 T00550022  RH  079%=      5-min Rain = 0
KWE2 060930Z 34011KT 06/02 A3025 RMK A01 T00550021  RH  079%=      5-min Rain = 0
KWE2 060931Z 34012KT 06/02 A3025 RMK A01 T00550021  RH  079%=      5-min Rain = 0
KWE2 060932Z 34011KT 06/02 A3025 RMK A01 T00550022  RH  079%=      5-min Rain = 0
KWE2 060933Z 34012KT 06/02 A3025 RMK A01 T00550022  RH  079%=      5-min Rain = 0
KWE2 060934Z 34011KT 06/02 A3025 RMK A01 T00550022  RH  079%=      5-min Rain = 0
KWE2 060935Z 34012KT 06/02 A3025 RMK A01 T00550022  RH  079%=      5-min Rain = 0
KWE2 060936Z 34012KT 06/02 A3025 RMK A01 T00550022  RH  079%=      5-min Rain = 0
KWE2 060937Z 34012KT 06/02 A3024 RMK A01 T00550022  RH  079%=      5-min Rain = 0
KWE2 060938Z 34011KT 06/02 A3024 RMK A01 T00550022  RH  079%=      5-min Rain = 0
KWE2 060939Z 34012KT 06/02 A3024 RMK A01 T00550022  RH  079%=      5-min Rain = 0
KWE2 060940Z 34012KT 06/02 A3025 RMK A01 T00550022  RH  080%=      5-min Rain = 0
KWE2 060941Z 34012KT 06/02 A3025 RMK A01 T00550022  RH  080%=      5-min Rain = 0
KWE2 060942Z 34012KT 06/02 A3025 RMK A01 T00550023  RH  080%=      5-min Rain = 0
KWE2 060943Z 34011G16KT 06/02 A3025 RMK A01 T00550023  RH  079%=      5-min Rain = 0
KWE2 060944Z 34012KT 06/02 A3025 RMK A01 T00550023  RH  080%=      5-min Rain = 0
KWE2 060945Z 35011KT 06/02 A3025 RMK A01 T00550023  RH  080%=      5-min Rain = 0
KWE2 060946Z 35012KT 06/02 A3025 RMK A01 T00550023  RH  080%=      5-min Rain = 0
KWE2 060947Z 34011KT 06/02 A3025 RMK A01 T00550023  RH  080%=      5-min Rain = 0
KWE2 060948Z 34010KT 06/02 A3025 RMK A01 T00550023  RH  080%=      5-min Rain = 0
KWE2 060949Z 34012KT 06/02 A3025 RMK A01 T00550023  RH  080%=      5-min Rain = 0
KWE2 060950Z 35012KT 05/02 A3025 RMK A01 T00540023  RH  080%=      5-min Rain = 0
KWE2 060951Z 34010KT 06/02 A3025 RMK A01 T00550023  RH  080%=      5-min Rain = 0
KWE2 060952Z 35011KT 05/02 A3025 RMK A01 T00540022  RH  080%=      5-min Rain = 0
KWE2 060953Z 35010KT 05/02 A3025 RMK A01 T00540023  RH  080%=      5-min Rain = 0
KWE2 060954Z 34010KT 05/02 A3025 RMK A01 T00530022  RH  081%=      5-min Rain = 0
KWE2 060955Z 34010KT 05/02 A3025 RMK A01 T00520022  RH  081%=      5-min Rain = 0
KWE2 060956Z 34012KT 05/02 A3025 RMK A01 T00520022  RH  081%=      5-min Rain = 0
KWE2 060957Z 34013KT 05/02 A3025 RMK A01 T00520022  RH  081%=      5-min Rain = 0
KWE2 060958Z 34012KT 05/02 A3025 RMK A01 T00520023  RH  081%=      5-min Rain = 0
KWE2 060959Z 35011KT 05/02 A3025 RMK A01 T00520023  RH  081%=      5-min Rain = 0
KWE2 061000Z 35010KT 05/02 A3025 RMK A01 T00520022  RH  081%=      5-min Rain = 0
KWE2 061001Z 35011KT 05/02 A3025 RMK A01 T00510022  RH  082%=      5-min Rain = 0
KWE2 061002Z 34011KT 05/02 A3025 RMK A01 T00510022  RH  082%=      5-min Rain = 0
KWE2 061003Z 35012KT 05/02 A3025 RMK A01 T00510022  RH  082%=      5-min Rain = 0
KWE2 061004Z 35009KT 05/02 A3025 RMK A01 T00510022  RH  082%=      5-min Rain = 0
KWE2 061005Z 35011KT 05/02 A3025 RMK A01 T00500022  RH  082%=      5-min Rain = 0
KWE2 061006Z 34011KT 05/02 A3025 RMK A01 T00500022  RH  082%=      5-min Rain = 0
KWE2 061007Z 34010KT 05/02 A3025 RMK A01 T00500022  RH  082%=      5-min Rain = 0
KWE2 061008Z 35011KT 05/02 A3025 RMK A01 T00500022  RH  082%=      5-min Rain = 0
KWE2 061009Z 35010KT 05/02 A3025 RMK A01 T00500022  RH  082%=      5-min Rain = 0
KWE2 061010Z 35010KT 05/02 A3025 RMK A01 T00500022  RH  082%=      5-min Rain = 0
KWE2 061011Z 35011KT 05/02 A3025 RMK A01 T00500022  RH  082%=      5-min Rain = 0
KWE2 061012Z 35010KT 05/02 A3025 RMK A01 T00490022  RH  082%=      5-min Rain = 0
KWE2 061013Z 34009KT 05/02 A3025 RMK A01 T00490022  RH  082%=      5-min Rain = 0
KWE2 061014Z 34009KT 05/02 A3026 RMK A01 T00490022  RH  083%=      5-min Rain = 0
KWE2 061015Z 34011KT 05/02 A3026 RMK A01 T00490022  RH  083%=      5-min Rain = 0
KWE2 061016Z 34010KT 05/02 A3026 RMK A01 T00490022  RH  083%=      5-min Rain = 0
KWE2 061017Z 34008KT 05/02 A3026 RMK A01 T00490022  RH  083%=      5-min Rain = 0
KWE2 061018Z 34009KT 05/02 A3026 RMK A01 T00490022  RH  083%=      5-min Rain = 0
KWE2 061019Z 34007KT 05/02 A3026 RMK A01 T00490022  RH  083%=      5-min Rain = 0
KWE2 061020Z 33007KT 05/02 A3026 RMK A01 T00490022  RH  083%=      5-min Rain = 0
KWE2 061021Z 33009KT 05/02 A3026 RMK A01 T00480022  RH  083%=      5-min Rain = 0
KWE2 061022Z 33008KT 05/02 A3026 RMK A01 T00480022  RH  083%=      5-min Rain = 0
KWE2 061023Z 33008KT 05/02 A3026 RMK A01 T00480022  RH  083%=      5-min Rain = 0
KWE2 061024Z 33009KT 05/02 A3027 RMK A01 T00480022  RH  083%=      5-min Rain = 0
KWE2 061025Z 33007KT 05/02 A3027 RMK A01 T00490022  RH  083%=      5-min Rain = 0
KWE2 061026Z 33008KT 05/02 A3027 RMK A01 T00480022  RH  083%=      5-min Rain = 0
KWE2 061027Z 33008KT 05/02 A3027 RMK A01 T00480022  RH  083%=      5-min Rain = 0
KWE2 061028Z 33008KT 05/02 A3027 RMK A01 T00480022  RH  083%=      5-min Rain = 0
KWE2 061029Z 33008KT 05/02 A3027 RMK A01 T00480022  RH  083%=      5-min Rain = 0
KWE2 061030Z 33008KT 05/02 A3027 RMK A01 T00470021  RH  083%=      5-min Rain = 0
KWE2 061031Z 33007KT 05/02 A3027 RMK A01 T00470021  RH  083%=      5-min Rain = 0
KWE2 061032Z 33008KT 05/02 A3027 RMK A01 T00470022  RH  084%=      5-min Rain = 0
KWE2 061033Z 33007KT 05/02 A3027 RMK A01 T00460021  RH  084%=      5-min Rain = 0
KWE2 061034Z 33006KT 05/02 A3027 RMK A01 T00460021  RH  084%=      5-min Rain = 0
KWE2 061035Z 33008KT 05/02 A3027 RMK A01 T00460021  RH  084%=      5-min Rain = 0
KWE2 061036Z 33008KT 05/02 A3027 RMK A01 T00460021  RH  084%=      5-min Rain = 0
KWE2 061037Z 33008KT 05/02 A3027 RMK A01 T00460021  RH  084%=      5-min Rain = 0
KWE2 061038Z 34008KT 05/02 A3027 RMK A01 T00460021  RH  084%=      5-min Rain = 0
KWE2 061039Z 33008KT 05/02 A3027 RMK A01 T00460021  RH  084%=      5-min Rain = 0
KWE2 061040Z 33009KT 05/02 A3026 RMK A01 T00460021  RH  084%=      5-min Rain = 0
KWE2 061041Z 34007KT 05/02 A3026 RMK A01 T00460021  RH  084%=      5-min Rain = 0
KWE2 061042Z 33009KT 05/02 A3026 RMK A01 T00450021  RH  084%=      5-min Rain = 0
KWE2 061043Z 34008KT 05/02 A3027 RMK A01 T00450021  RH  084%=      5-min Rain = 0
KWE2 061044Z 33008KT 05/02 A3027 RMK A01 T00450021  RH  084%=      5-min Rain = 0
KWE2 061045Z 34008KT 05/02 A3027 RMK A01 T00450021  RH  085%=      5-min Rain = 0
KWE2 061046Z 34007KT 04/02 A3027 RMK A01 T00440021  RH  084%=      5-min Rain = 0
KWE2 061047Z 34007KT 04/02 A3027 RMK A01 T00440020  RH  085%=      5-min Rain = 0
KWE2 061048Z 34007KT 04/02 A3027 RMK A01 T00440020  RH  085%=      5-min Rain = 0
KWE2 061049Z 34007KT 04/02 A3027 RMK A01 T00430020  RH  085%=      5-min Rain = 0
KWE2 061050Z 33008KT 04/02 A3027 RMK A01 T00430020  RH  085%=      5-min Rain = 0
KWE2 061051Z 33008KT 04/02 A3027 RMK A01 T00430020  RH  085%=      5-min Rain = 0
KWE2 061052Z 33010KT 04/02 A3026 RMK A01 T00430020  RH  085%=      5-min Rain = 0
KWE2 061053Z 33009KT 04/02 A3027 RMK A01 T00430020  RH  085%=      5-min Rain = 0
KWE2 061054Z 33008KT 04/02 A3027 RMK A01 T00430020  RH  085%=      5-min Rain = 0
KWE2 061055Z 33009KT 04/02 A3027 RMK A01 T00430020  RH  085%=      5-min Rain = 0
KWE2 061056Z 33009KT 04/02 A3027 RMK A01 T00420020  RH  086%=      5-min Rain = 0
KWE2 061057Z 34008KT 04/02 A3027 RMK A01 T00430020  RH  085%=      5-min Rain = 0
KWE2 061058Z 33008KT 04/02 A3027 RMK A01 T00420020  RH  085%=      5-min Rain = 0
KWE2 061059Z 33009KT 04/02 A3027 RMK A01 T00420020  RH  086%=      5-min Rain = 0
KWE2 061100Z 33008KT 04/02 A3027 RMK A01 T00420020  RH  086%=      5-min Rain = 0
KWE2 061101Z 34009KT 04/02 A3027 RMK A01 T00420020  RH  086%=      5-min Rain = 0
KWE2 061102Z 34009KT 04/02 A3027 RMK A01 T00420020  RH  086%=      5-min Rain = 0
KWE2 061103Z 34009KT 04/02 A3027 RMK A01 T00420020  RH  086%=      5-min Rain = 0
KWE2 061104Z 34009KT 04/02 A3027 RMK A01 T00410020  RH  086%=      5-min Rain = 0
KWE2 061105Z 34008KT 04/02 A3027 RMK A01 T00420020  RH  086%=      5-min Rain = 0
KWE2 061106Z 34010KT 04/02 A3027 RMK A01 T00410020  RH  086%=      5-min Rain = 0
KWE2 061107Z 34009KT 04/02 A3027 RMK A01 T00410020  RH  086%=      5-min Rain = 0
KWE2 061108Z 35009KT 04/02 A3027 RMK A01 T00420020  RH  086%=      5-min Rain = 0
KWE2 061109Z 35008KT 04/02 A3027 RMK A01 T00420020  RH  086%=      5-min Rain = 0
KWE2 061110Z 35009KT 04/02 A3027 RMK A01 T00410020  RH  086%=      5-min Rain = 0
KWE2 061111Z 35008KT 04/02 A3027 RMK A01 T00410020  RH  086%=      5-min Rain = 0
KWE2 061112Z 35008KT 04/02 A3027 RMK A01 T00420020  RH  086%=      5-min Rain = 0
KWE2 061113Z 36009KT 04/02 A3027 RMK A01 T00420020  RH  086%=      5-min Rain = 0
KWE2 061114Z 35009KT 04/02 A3027 RMK A01 T00420020  RH  086%=      5-min Rain = 0
KWE2 061115Z 35010KT 04/02 A3027 RMK A01 T00420019  RH  086%=      5-min Rain = 0
KWE2 061116Z 36010KT 04/02 A3027 RMK A01 T00420019  RH  085%=      5-min Rain = 0
KWE2 061117Z 36009KT 04/02 A3027 RMK A01 T00420019  RH  085%=      5-min Rain = 0
KWE2 061118Z 35009KT 04/02 A3027 RMK A01 T00420019  RH  085%=      5-min Rain = 0
KWE2 061119Z 35009KT 04/02 A3027 RMK A01 T00410019  RH  085%=      5-min Rain = 0
KWE2 061120Z 35009KT 04/02 A3027 RMK A01 T00410019  RH  086%=      5-min Rain = 0
KWE2 061121Z 35009KT 04/02 A3027 RMK A01 T00410019  RH  086%=      5-min Rain = 0
KWE2 061122Z 35010KT 04/02 A3027 RMK A01 T00410019  RH  086%=      5-min Rain = 0
KWE2 061123Z 35009KT 04/02 A3027 RMK A01 T00410019  RH  086%=      5-min Rain = 0
KWE2 061124Z 34010KT 04/02 A3028 RMK A01 T00410019  RH  086%=      5-min Rain = 0
KWE2 061125Z 35010KT 04/02 A3028 RMK A01 T00410019  RH  086%=      5-min Rain = 0
KWE2 061126Z 35010KT 04/02 A3028 RMK A01 T00410019  RH  086%=      5-min Rain = 0
KWE2 061127Z 35010KT 04/02 A3028 RMK A01 T00410019  RH  086%=      5-min Rain = 0
KWE2 061128Z 35009KT 04/02 A3028 RMK A01 T00400019  RH  086%=      5-min Rain = 0
KWE2 061129Z 35010KT 04/02 A3028 RMK A01 T00410019  RH  086%=      5-min Rain = 0
KWE2 061130Z 35010KT 04/02 A3028 RMK A01 T00410019  RH  086%=      5-min Rain = 0
KWE2 061131Z 36009KT 04/02 A3028 RMK A01 T00410019  RH  086%=      5-min Rain = 0
KWE2 061132Z 35009KT 04/02 A3028 RMK A01 T00410019  RH  086%=      5-min Rain = 0
KWE2 061133Z 35009KT 04/02 A3028 RMK A01 T00410019  RH  086%=      5-min Rain = 0
KWE2 061134Z 35011KT 04/02 A3028 RMK A01 T00410019  RH  086%=      5-min Rain = 0
KWE2 061135Z 36010KT 04/02 A3028 RMK A01 T00400019  RH  086%=      5-min Rain = 0
KWE2 061136Z 36010KT 04/02 A3028 RMK A01 T00410019  RH  085%=      5-min Rain = 0
KWE2 061137Z 35010KT 04/02 A3028 RMK A01 T00420019  RH  085%=      5-min Rain = 0
KWE2 061138Z 35011KT 04/02 A3028 RMK A01 T00420019  RH  085%=      5-min Rain = 0
KWE2 061139Z 35010KT 04/02 A3028 RMK A01 T00410019  RH  085%=      5-min Rain = 0
KWE2 061140Z 35010KT 04/02 A3028 RMK A01 T00410018  RH  085%=      5-min Rain = 0
KWE2 061141Z 35010KT 04/02 A3028 RMK A01 T00410019  RH  086%=      5-min Rain = 0
KWE2 061142Z 35010KT 04/02 A3028 RMK A01 T00400018  RH  086%=      5-min Rain = 0
KWE2 061143Z 34010KT 04/02 A3028 RMK A01 T00400018  RH  086%=      5-min Rain = 0
KWE2 061144Z 35010KT 04/02 A3029 RMK A01 T00400019  RH  086%=      5-min Rain = 0
KWE2 061145Z 34010KT 04/02 A3029 RMK A01 T00400018  RH  086%=      5-min Rain = 0
KWE2 061146Z 35010KT 04/02 A3029 RMK A01 T00400018  RH  086%=      5-min Rain = 0
KWE2 061147Z 34009KT 04/02 A3029 RMK A01 T00400018  RH  085%=      5-min Rain = 0
KWE2 061148Z 35011KT 04/02 A3029 RMK A01 T00400018  RH  086%=      5-min Rain = 0
KWE2 061149Z 35011KT 04/02 A3029 RMK A01 T00400019  RH  086%=      5-min Rain = 0
KWE2 061150Z 35010KT 04/02 A3029 RMK A01 T00400018  RH  086%=      5-min Rain = 0
KWE2 061151Z 35011KT 04/02 A3029 RMK A01 T00400018  RH  085%=      5-min Rain = 0
KWE2 061152Z 35011KT 04/02 A3029 RMK A01 T00410018  RH  085%=      5-min Rain = 0
KWE2 061153Z 35011KT 04/02 A3029 RMK A01 T00410018  RH  085%=      5-min Rain = 0
KWE2 061154Z 34012KT 04/02 A3029 RMK A01 T00410018  RH  085%=      5-min Rain = 0
KWE2 061155Z 35011KT 04/02 A3029 RMK A01 T00410018  RH  085%=      5-min Rain = 0
KWE2 061156Z 34011KT 04/02 A3029 RMK A01 T00410018  RH  085%=      5-min Rain = 0
KWE2 061157Z 35011KT 04/02 A3029 RMK A01 T00410018  RH  085%=      5-min Rain = 0
KWE2 061158Z 35011KT 04/02 A3029 RMK A01 T00410018  RH  085%=      5-min Rain = 0
KWE2 061159Z 34011KT 04/02 A3029 RMK A01 T00410018  RH  085%=      5-min Rain = 0
KWE2 061200Z 35010KT 04/02 A3029 RMK A01 T00400017  RH  085%=      5-min Rain = 0
KWE2 061201Z 35011KT 04/02 A3029 RMK A01 T00400017  RH  085%=      5-min Rain = 0
KWE2 061202Z 34012KT 04/02 A3029 RMK A01 T00400017  RH  085%=      5-min Rain = 0
KWE2 061203Z 35010KT 04/02 A3029 RMK A01 T00400017  RH  085%=      5-min Rain = 0
KWE2 061204Z 35009KT 04/02 A3029 RMK A01 T00400017  RH  085%=      5-min Rain = 0
KWE2 061205Z 36010KT 04/02 A3029 RMK A01 T00390017  RH  086%=      5-min Rain = 0
KWE2 061206Z 35009KT 04/02 A3029 RMK A01 T00390017  RH  086%=      5-min Rain = 0
KWE2 061207Z 36008KT 04/02 A3029 RMK A01 T00390017  RH  086%=      5-min Rain = 0
KWE2 061208Z 36009KT 04/02 A3029 RMK A01 T00380017  RH  086%=      5-min Rain = 0
KWE2 061209Z 36009KT 04/02 A3029 RMK A01 T00380017  RH  086%=      5-min Rain = 0
KWE2 061210Z 35009KT 04/02 A3029 RMK A01 T00380017  RH  086%=      5-min Rain = 0
KWE2 061211Z 35009KT 04/02 A3029 RMK A01 T00380017  RH  086%=      5-min Rain = 0
KWE2 061212Z 34009KT 04/02 A3029 RMK A01 T00370017  RH  086%=      5-min Rain = 0
KWE2 061213Z 35009KT 04/02 A3029 RMK A01 T00370017  RH  086%=      5-min Rain = 0
KWE2 061214Z 35009KT 04/02 A3029 RMK A01 T00380017  RH  086%=      5-min Rain = 0
KWE2 061215Z 34009KT 04/02 A3029 RMK A01 T00380017  RH  086%=      5-min Rain = 0
KWE2 061216Z 34009KT 04/02 A3029 RMK A01 T00380017  RH  086%=      5-min Rain = 0
KWE2 061217Z 34009KT 04/02 A303 RMK A01 T00370017  RH  086%=      5-min Rain = 0
KWE2 061218Z 34009KT 04/02 A303 RMK A01 T00370017  RH  086%=      5-min Rain = 0
KWE2 061219Z 35010KT 04/02 A303 RMK A01 T00370017  RH  086%=      5-min Rain = 0
KWE2 061220Z 34009KT 04/02 A303 RMK A01 T00380017  RH  086%=      5-min Rain = 0
KWE2 061221Z 34008KT 04/02 A303 RMK A01 T00380017  RH  086%=      5-min Rain = 0
KWE2 061222Z 34010KT 04/02 A303 RMK A01 T00380017  RH  086%=      5-min Rain = 0
KWE2 061223Z 34010KT 04/02 A303 RMK A01 T00380017  RH  086%=      5-min Rain = 0
KWE2 061224Z 34009KT 04/02 A303 RMK A01 T00380017  RH  086%=      5-min Rain = 0
KWE2 061225Z 34009KT 04/02 A3031 RMK A01 T00380017  RH  086%=      5-min Rain = 0
KWE2 061226Z 35009KT 04/02 A3031 RMK A01 T00380017  RH  086%=      5-min Rain = 0
KWE2 061227Z 35009KT 04/02 A3031 RMK A01 T00380017  RH  086%=      5-min Rain = 0
KWE2 061228Z 35009KT 04/02 A3031 RMK A01 T00380017  RH  086%=      5-min Rain = 0
KWE2 061229Z 35009KT 04/02 A3031 RMK A01 T00380017  RH  086%=      5-min Rain = 0
KWE2 061230Z 35010KT 04/02 A3031 RMK A01 T00380017  RH  086%=      5-min Rain = 0
KWE2 061231Z 35010KT 04/02 A3031 RMK A01 T00390017  RH  086%=      5-min Rain = 0
KWE2 061232Z 35010KT 04/02 A303 RMK A01 T00390017  RH  086%=      5-min Rain = 0
KWE2 061233Z 35010KT 04/02 A303 RMK A01 T00390017  RH  086%=      5-min Rain = 0
KWE2 061234Z 35009KT 04/02 A303 RMK A01 T00390017  RH  086%=      5-min Rain = 0
KWE2 061235Z 35008KT 04/02 A303 RMK A01 T00390017  RH  086%=      5-min Rain = 0
KWE2 061236Z 36009KT 04/02 A303 RMK A01 T00380016  RH  086%=      5-min Rain = 0
KWE2 061237Z 35009G14KT 04/02 A303 RMK A01 T00380017  RH  086%=      5-min Rain = 0
KWE2 061238Z 36010KT 04/02 A303 RMK A01 T00380017  RH  086%=      5-min Rain = 0
KWE2 061239Z 36009KT 04/02 A303 RMK A01 T00370017  RH  086%=      5-min Rain = 0
KWE2 061240Z 00011KT 04/02 A303 RMK A01 T00370017  RH  086%=      5-min Rain = 0
KWE2 061241Z 00010KT 04/02 A3031 RMK A01 T00370017  RH  087%=      5-min Rain = 0
KWE2 061242Z 00009KT 04/02 A3031 RMK A01 T00370017  RH  087%=      5-min Rain = 0
KWE2 061243Z 00008KT 04/02 A3031 RMK A01 T00370017  RH  087%=      5-min Rain = 0
KWE2 061244Z 36010KT 04/02 A3031 RMK A01 T00370017  RH  087%=      5-min Rain = 0
KWE2 061245Z 01009KT 04/02 A3031 RMK A01 T00360016  RH  087%=      5-min Rain = 0
KWE2 061246Z 00009KT 04/02 A3031 RMK A01 T00360016  RH  087%=      5-min Rain = 0
KWE2 061247Z 00009KT 04/02 A3031 RMK A01 T00360016  RH  087%=      5-min Rain = 0
KWE2 061248Z 01009KT 04/02 A3031 RMK A01 T00350016  RH  088%=      5-min Rain = 0
KWE2 061249Z 00009KT 04/02 A3031 RMK A01 T00350017  RH  088%=      5-min Rain = 0
KWE2 061250Z 00010KT 04/02 A3031 RMK A01 T00350017  RH  088%=      5-min Rain = 0
KWE2 061251Z 00010KT 04/02 A3031 RMK A01 T00350017  RH  088%=      5-min Rain = 0
KWE2 061252Z 36009KT 04/02 A3031 RMK A01 T00350016  RH  088%=      5-min Rain = 0
KWE2 061253Z 36009KT 04/02 A3031 RMK A01 T00350017  RH  088%=      5-min Rain = 0
KWE2 061254Z 35008KT 04/02 A3031 RMK A01 T00350017  RH  088%=      5-min Rain = 0
KWE2 061255Z 35008KT 04/02 A3031 RMK A01 T00350017  RH  088%=      5-min Rain = 0
KWE2 061256Z 35009KT 04/02 A3031 RMK A01 T00350016  RH  088%=      5-min Rain = 0
KWE2 061257Z 36010KT 04/02 A3031 RMK A01 T00350017  RH  088%=      5-min Rain = 0
KWE2 061258Z 36009KT 04/02 A3031 RMK A01 T00350016  RH  088%=      5-min Rain = 0
KWE2 061259Z 35010KT 04/02 A3031 RMK A01 T00350016  RH  088%=      5-min Rain = 0
KWE2 061300Z 36011KT 04/02 A3031 RMK A01 T00350017  RH  087%=      5-min Rain = 0
KWE2 061301Z 35011KT 04/02 A3031 RMK A01 T00360016  RH  087%=      5-min Rain = 0
KWE2 061302Z 35011KT 04/02 A3031 RMK A01 T00360017  RH  087%=      5-min Rain = 0
KWE2 061303Z 36010KT 04/02 A3031 RMK A01 T00360016  RH  087%=      5-min Rain = 0
KWE2 061304Z 35010KT 04/02 A3031 RMK A01 T00360016  RH  087%=      5-min Rain = 0
KWE2 061305Z 35009KT 04/02 A3031 RMK A01 T00360016  RH  087%=      5-min Rain = 0
KWE2 061306Z 36009KT 04/02 A3031 RMK A01 T00360017  RH  087%=      5-min Rain = 0
KWE2 061307Z 35010KT 04/02 A3031 RMK A01 T00360016  RH  087%=      5-min Rain = 0
KWE2 061308Z 35010KT 04/02 A3032 RMK A01 T00350016  RH  087%=      5-min Rain = 0
KWE2 061309Z 35011KT 04/02 A3032 RMK A01 T00350016  RH  087%=      5-min Rain = 0
KWE2 061310Z 35011KT 04/02 A3032 RMK A01 T00350017  RH  088%=      5-min Rain = 0
KWE2 061311Z 35010KT 04/02 A3032 RMK A01 T00350016  RH  088%=      5-min Rain = 0
KWE2 061312Z 35011KT 04/02 A3032 RMK A01 T00350016  RH  088%=      5-min Rain = 0
KWE2 061313Z 35009KT 04/02 A3032 RMK A01 T00350017  RH  088%=      5-min Rain = 0
KWE2 061314Z 36011KT 04/02 A3032 RMK A01 T00350016  RH  088%=      5-min Rain = 0
KWE2 061315Z 36010KT 04/02 A3032 RMK A01 T00350016  RH  088%=      5-min Rain = 0
KWE2 061316Z 36009KT 04/02 A3032 RMK A01 T00350016  RH  088%=      5-min Rain = 0
KWE2 061317Z 00009KT 04/02 A3032 RMK A01 T00350016  RH  088%=      5-min Rain = 0
KWE2 061318Z 01010KT 03/02 A3032 RMK A01 T00340016  RH  088%=      5-min Rain = 0
KWE2 061319Z 00009KT 03/02 A3032 RMK A01 T00340016  RH  088%=      5-min Rain = 0
KWE2 061320Z 00009KT 03/02 A3032 RMK A01 T00340016  RH  088%=      5-min Rain = 0
KWE2 061321Z 00010KT 03/02 A3032 RMK A01 T00340016  RH  088%=      5-min Rain = 0
KWE2 061322Z 00009KT 03/02 A3032 RMK A01 T00340016  RH  088%=      5-min Rain = 0
KWE2 061323Z 36009KT 03/02 A3032 RMK A01 T00340016  RH  088%=      5-min Rain = 0
KWE2 061324Z 01009KT 03/02 A3032 RMK A01 T00340016  RH  088%=      5-min Rain = 0
KWE2 061325Z 00009KT 03/02 A3032 RMK A01 T00330016  RH  089%=      5-min Rain = 0
KWE2 061326Z 00009KT 03/02 A3032 RMK A01 T00330016  RH  089%=      5-min Rain = 0
KWE2 061327Z 00009KT 03/02 A3032 RMK A01 T00330016  RH  089%=      5-min Rain = 0
KWE2 061328Z 00008KT 03/02 A3032 RMK A01 T00330016  RH  089%=      5-min Rain = 0
KWE2 061329Z 00009KT 03/02 A3032 RMK A01 T00320016  RH  089%=      5-min Rain = 0
KWE2 061330Z 01009KT 03/02 A3032 RMK A01 T00320016  RH  089%=      5-min Rain = 0
KWE2 061331Z 00009KT 03/02 A3032 RMK A01 T00320016  RH  089%=      5-min Rain = 0
KWE2 061332Z 01008KT 03/02 A3032 RMK A01 T00320016  RH  089%=      5-min Rain = 0
KWE2 061333Z 01010KT 03/02 A3032 RMK A01 T00330016  RH  089%=      5-min Rain = 0
KWE2 061334Z 01010KT 03/02 A3032 RMK A01 T00320016  RH  089%=      5-min Rain = 0
KWE2 061335Z 00009KT 03/02 A3033 RMK A01 T00320016  RH  089%=      5-min Rain = 0
KWE2 061336Z 36009KT 03/02 A3033 RMK A01 T00320016  RH  089%=      5-min Rain = 0
KWE2 061337Z 36010KT 03/02 A3033 RMK A01 T00320016  RH  089%=      5-min Rain = 0
KWE2 061338Z 36009KT 03/02 A3033 RMK A01 T00320016  RH  089%=      5-min Rain = 0
KWE2 061339Z 36008KT 03/02 A3033 RMK A01 T00320016  RH  089%=      5-min Rain = 0
KWE2 061340Z 35009KT 03/02 A3033 RMK A01 T00320016  RH  089%=      5-min Rain = 0
KWE2 061341Z 35008KT 03/02 A3033 RMK A01 T00320017  RH  089%=      5-min Rain = 0
KWE2 061342Z 35008KT 03/02 A3033 RMK A01 T00320016  RH  089%=      5-min Rain = 0
KWE2 061343Z 35008KT 03/02 A3033 RMK A01 T00320016  RH  089%=      5-min Rain = 0
KWE2 061344Z 35009KT 03/02 A3033 RMK A01 T00320016  RH  089%=      5-min Rain = 0
KWE2 061345Z 35008KT 03/02 A3033 RMK A01 T00330016  RH  089%=      5-min Rain = 0
KWE2 061346Z 35007KT 03/02 A3033 RMK A01 T00320016  RH  089%=      5-min Rain = 0
KWE2 061347Z 35009KT 03/02 A3033 RMK A01 T00320016  RH  089%=      5-min Rain = 0
KWE2 061348Z 35010KT 03/02 A3033 RMK A01 T00320016  RH  089%=      5-min Rain = 0
KWE2 061349Z 35008KT 03/02 A3033 RMK A01 T00330016  RH  089%=      5-min Rain = 0
KWE2 061350Z 34008KT 03/02 A3033 RMK A01 T00330016  RH  089%=      5-min Rain = 0
KWE2 061351Z 34008KT 03/02 A3033 RMK A01 T00330016  RH  089%=      5-min Rain = 0
KWE2 061352Z 35008KT 03/02 A3033 RMK A01 T00330016  RH  089%=      5-min Rain = 0
KWE2 061353Z 35008KT 03/02 A3034 RMK A01 T00330016  RH  088%=      5-min Rain = 0
KWE2 061354Z 35008KT 03/02 A3034 RMK A01 T00330016  RH  088%=      5-min Rain = 0
KWE2 061355Z 35008KT 03/02 A3034 RMK A01 T00330016  RH  088%=      5-min Rain = 0
KWE2 061356Z 35009KT 03/02 A3034 RMK A01 T00330016  RH  088%=      5-min Rain = 0
KWE2 061357Z 35008KT 03/02 A3034 RMK A01 T00330016  RH  088%=      5-min Rain = 0
KWE2 061358Z 35009KT 03/02 A3034 RMK A01 T00340016  RH  088%=      5-min Rain = 0
KWE2 061359Z 35008KT 03/02 A3034 RMK A01 T00340016  RH  088%=      5-min Rain = 0
KWE2 061400Z 35008KT 03/02 A3034 RMK A01 T00340016  RH  088%=      5-min Rain = 0
KWE2 061401Z 35009KT 03/02 A3034 RMK A01 T00340016  RH  088%=      5-min Rain = 0
KWE2 061402Z 34009KT 03/02 A3034 RMK A01 T00340016  RH  088%=      5-min Rain = 0
KWE2 061403Z 35010KT 04/02 A3034 RMK A01 T00350016  RH  088%=      5-min Rain = 0
KWE2 061404Z 35010KT 04/02 A3034 RMK A01 T00350016  RH  087%=      5-min Rain = 0
KWE2 061405Z 35011KT 04/02 A3034 RMK A01 T00360017  RH  087%=      5-min Rain = 0
KWE2 061406Z 35010KT 04/02 A3034 RMK A01 T00360016  RH  087%=      5-min Rain = 0
KWE2 061407Z 35009KT 04/02 A3034 RMK A01 T00360016  RH  087%=      5-min Rain = 0
KWE2 061408Z 35009KT 04/02 A3034 RMK A01 T00370016  RH  086%=      5-min Rain = 0
KWE2 061409Z 35008KT 04/02 A3034 RMK A01 T00370016  RH  086%=      5-min Rain = 0
KWE2 061410Z 35009KT 04/02 A3034 RMK A01 T00370016  RH  086%=      5-min Rain = 0
KWE2 061411Z 35009KT 04/02 A3034 RMK A01 T00380016  RH  086%=      5-min Rain = 0
KWE2 061412Z 35009KT 04/02 A3034 RMK A01 T00380016  RH  086%=      5-min Rain = 0
KWE2 061413Z 35008KT 04/02 A3034 RMK A01 T00380016  RH  086%=      5-min Rain = 0
KWE2 061414Z 35009KT 04/02 A3035 RMK A01 T00390017  RH  086%=      5-min Rain = 0
KWE2 061415Z 35009KT 04/02 A3035 RMK A01 T00390016  RH  085%=      5-min Rain = 0
KWE2 061416Z 35009KT 04/02 A3035 RMK A01 T00390017  RH  085%=      5-min Rain = 0
KWE2 061417Z 34011KT 04/02 A3035 RMK A01 T00400017  RH  085%=      5-min Rain = 0
KWE2 061418Z 35010KT 04/02 A3034 RMK A01 T00400017  RH  085%=      5-min Rain = 0
KWE2 061419Z 34010KT 04/02 A3034 RMK A01 T00400016  RH  085%=      5-min Rain = 0
KWE2 061420Z 35010KT 04/02 A3034 RMK A01 T00400017  RH  085%=      5-min Rain = 0
KWE2 061421Z 35011KT 04/02 A3034 RMK A01 T00400017  RH  085%=      5-min Rain = 0
KWE2 061422Z 35011KT 04/02 A3034 RMK A01 T00410017  RH  084%=      5-min Rain = 0
KWE2 061423Z 35009KT 04/02 A3035 RMK A01 T00410016  RH  084%=      5-min Rain = 0
KWE2 061424Z 35010KT 04/02 A3035 RMK A01 T00410017  RH  084%=      5-min Rain = 0
KWE2 061425Z 35010KT 04/02 A3035 RMK A01 T00410017  RH  084%=      5-min Rain = 0
KWE2 061426Z 35011KT 04/02 A3035 RMK A01 T00420017  RH  084%=      5-min Rain = 0
KWE2 061427Z 35009KT 04/02 A3035 RMK A01 T00420017  RH  084%=      5-min Rain = 0
KWE2 061428Z 35009KT 04/02 A3035 RMK A01 T00420017  RH  084%=      5-min Rain = 0
KWE2 061429Z 35010KT 04/02 A3035 RMK A01 T00420017  RH  084%=      5-min Rain = 0
KWE2 061430Z 36010KT 04/02 A3035 RMK A01 T00420017  RH  084%=      5-min Rain = 0
KWE2 061431Z 35010KT 04/02 A3035 RMK A01 T00430017  RH  084%=      5-min Rain = 0
KWE2 061432Z 35009KT 04/02 A3035 RMK A01 T00430018  RH  084%=      5-min Rain = 0
KWE2 061433Z 35010KT 04/02 A3035 RMK A01 T00430018  RH  084%=      5-min Rain = 0
KWE2 061434Z 35010KT 04/02 A3035 RMK A01 T00430018  RH  083%=      5-min Rain = 0
KWE2 061435Z 35012KT 04/02 A3035 RMK A01 T00440018  RH  083%=      5-min Rain = 0
KWE2 061436Z 35012KT 04/02 A3035 RMK A01 T00440017  RH  083%=      5-min Rain = 0
KWE2 061437Z 35013KT 04/02 A3035 RMK A01 T00440017  RH  083%=      5-min Rain = 0
KWE2 061438Z 35012KT 04/02 A3035 RMK A01 T00440017  RH  082%=      5-min Rain = 0
KWE2 061439Z 36012KT 05/02 A3035 RMK A01 T00450018  RH  083%=      5-min Rain = 0
KWE2 061440Z 36013KT 05/02 A3035 RMK A01 T00450018  RH  082%=      5-min Rain = 0
KWE2 061441Z 36013KT 05/02 A3035 RMK A01 T00460017  RH  082%=      5-min Rain = 0
KWE2 061442Z 36013KT 05/02 A3035 RMK A01 T00460017  RH  082%=      5-min Rain = 0
KWE2 061443Z 36012KT 05/02 A3035 RMK A01 T00460018  RH  082%=      5-min Rain = 0
KWE2 061444Z 36012KT 05/02 A3035 RMK A01 T00470018  RH  082%=      5-min Rain = 0
KWE2 061445Z 35013KT 05/02 A3035 RMK A01 T00470018  RH  081%=      5-min Rain = 0
KWE2 061446Z 36012KT 05/02 A3035 RMK A01 T00470017  RH  081%=      5-min Rain = 0
KWE2 061447Z 36011KT 05/02 A3035 RMK A01 T00480018  RH  081%=      5-min Rain = 0
KWE2 061448Z 36011KT 05/02 A3035 RMK A01 T00480018  RH  081%=      5-min Rain = 0
KWE2 061449Z 36012KT 05/02 A3035 RMK A01 T00490018  RH  081%=      5-min Rain = 0
KWE2 061450Z 36012KT 05/02 A3035 RMK A01 T00490018  RH  080%=      5-min Rain = 0
KWE2 061451Z 00013KT 05/02 A3035 RMK A01 T00490018  RH  080%=      5-min Rain = 0
KWE2 061452Z 35013KT 05/02 A3035 RMK A01 T00490017  RH  080%=      5-min Rain = 0
KWE2 061453Z 00011KT 05/02 A3035 RMK A01 T00500018  RH  080%=      5-min Rain = 0
KWE2 061454Z 00012KT 05/02 A3035 RMK A01 T00500018  RH  079%=      5-min Rain = 0
KWE2 061455Z 36013KT 05/02 A3035 RMK A01 T00510017  RH  079%=      5-min Rain = 0
KWE2 061456Z 00010KT 05/02 A3035 RMK A01 T00510017  RH  079%=      5-min Rain = 0
KWE2 061457Z 36011KT 05/02 A3035 RMK A01 T00510018  RH  079%=      5-min Rain = 0
KWE2 061458Z 00013KT 05/02 A3035 RMK A01 T00520018  RH  078%=      5-min Rain = 0
KWE2 061459Z 01011KT 05/02 A3035 RMK A01 T00530017  RH  078%=      5-min Rain = 0
KWE2 061500Z 36010KT 05/02 A3035 RMK A01 T00530018  RH  078%=      5-min Rain = 0
KWE2 061501Z 00012KT 05/02 A3035 RMK A01 T00540018  RH  078%=      5-min Rain = 0
KWE2 061502Z 00014KT 05/02 A3035 RMK A01 T00540017  RH  077%=      5-min Rain = 0
KWE2 061503Z 36013KT 05/02 A3035 RMK A01 T00540017  RH  077%=      5-min Rain = 0
KWE2 061504Z 01012KT 06/02 A3035 RMK A01 T00550017  RH  077%=      5-min Rain = 0
KWE2 061505Z 00011KT 06/02 A3035 RMK A01 T00560018  RH  076%=      5-min Rain = 0
KWE2 061506Z 36010KT 06/02 A3035 RMK A01 T00560018  RH  076%=      5-min Rain = 0
KWE2 061507Z 35011KT 06/02 A3035 RMK A01 T00570018  RH  076%=      5-min Rain = 0
KWE2 061508Z 36014KT 06/02 A3035 RMK A01 T00580017  RH  075%=      5-min Rain = 0
KWE2 061509Z 00014KT 06/02 A3035 RMK A01 T00580017  RH  075%=      5-min Rain = 0
KWE2 061510Z 00013KT 06/02 A3035 RMK A01 T00580016  RH  074%=      5-min Rain = 0
KWE2 061511Z 00013KT 06/02 A3035 RMK A01 T00580016  RH  074%=      5-min Rain = 0
KWE2 061512Z 01016KT 06/02 A3035 RMK A01 T00590016  RH  074%=      5-min Rain = 0
KWE2 061513Z 01013KT 06/02 A3035 RMK A01 T00590016  RH  074%=      5-min Rain = 0
KWE2 061514Z 00015KT 06/02 A3035 RMK A01 T00600016  RH  074%=      5-min Rain = 0
KWE2 061515Z 01016KT 06/02 A3035 RMK A01 T00600015  RH  073%=      5-min Rain = 0
KWE2 061516Z 01015KT 06/02 A3035 RMK A01 T00600015  RH  073%=      5-min Rain = 0
KWE2 061517Z 01016KT 06/02 A3035 RMK A01 T00600015  RH  073%=      5-min Rain = 0
KWE2 061518Z 01016KT 06/02 A3035 RMK A01 T00610015  RH  072%=      5-min Rain = 0
KWE2 061519Z 01017KT 06/02 A3035 RMK A01 T00610015  RH  072%=      5-min Rain = 0
KWE2 061520Z 01016KT 06/02 A3035 RMK A01 T00610015  RH  072%=      5-min Rain = 0
KWE2 061521Z 01014KT 06/02 A3035 RMK A01 T00620015  RH  072%=      5-min Rain = 0
KWE2 061522Z 01014KT 06/02 A3035 RMK A01 T00630016  RH  072%=      5-min Rain = 0
KWE2 061523Z 01013KT 06/02 A3035 RMK A01 T00640016  RH  071%=      5-min Rain = 0
KWE2 061524Z 00015KT 07/02 A3035 RMK A01 T00650016  RH  071%=      5-min Rain = 0
KWE2 061525Z 00011KT 07/02 A3036 RMK A01 T00650016  RH  070%=      5-min Rain = 0
KWE2 061526Z 01014KT 07/02 A3036 RMK A01 T00660015  RH  070%=      5-min Rain = 0
KWE2 061527Z 01013KT 07/02 A3036 RMK A01 T00660015  RH  070%=      5-min Rain = 0
KWE2 061528Z 01010KT 07/02 A3036 RMK A01 T00660016  RH  070%=      5-min Rain = 0
KWE2 061529Z 00012KT 07/02 A3036 RMK A01 T00680017  RH  070%=      5-min Rain = 0
KWE2 061530Z 02012KT 07/02 A3036 RMK A01 T00690017  RH  069%=      5-min Rain = 0
KWE2 061531Z 01014KT 07/02 A3036 RMK A01 T00700016  RH  068%=      5-min Rain = 0
KWE2 061532Z 02014KT 07/02 A3036 RMK A01 T00690015  RH  068%=      5-min Rain = 0
KWE2 061533Z 01014KT 07/02 A3036 RMK A01 T00690015  RH  068%=      5-min Rain = 0
KWE2 061534Z 01014KT 07/01 A3036 RMK A01 T00690014  RH  068%=      5-min Rain = 0
KWE2 061535Z 01013KT 07/02 A3036 RMK A01 T00700015  RH  068%=      5-min Rain = 0
KWE2 061536Z 01011KT 07/02 A3036 RMK A01 T00700015  RH  068%=      5-min Rain = 0
KWE2 061537Z 00013KT 07/02 A3036 RMK A01 T00710016  RH  068%=      5-min Rain = 0
KWE2 061538Z 01014KT 07/02 A3036 RMK A01 T00720016  RH  067%=      5-min Rain = 0
KWE2 061539Z 02014KT 07/02 A3036 RMK A01 T00720015  RH  067%=      5-min Rain = 0
KWE2 061540Z 02015KT 07/01 A3036 RMK A01 T00720014  RH  067%=      5-min Rain = 0
KWE2 061541Z 01011KT 07/02 A3036 RMK A01 T00720015  RH  067%=      5-min Rain = 0
KWE2 061542Z 01011KT 07/02 A3036 RMK A01 T00730016  RH  067%=      5-min Rain = 0
KWE2 061543Z 01013KT 07/02 A3036 RMK A01 T00740016  RH  067%=      5-min Rain = 0
KWE2 061544Z 01012KT 07/02 A3036 RMK A01 T00740015  RH  066%=      5-min Rain = 0
KWE2 061545Z 01011KT 08/02 A3037 RMK A01 T00750017  RH  066%=      5-min Rain = 0
KWE2 061546Z 02012KT 08/02 A3037 RMK A01 T00760016  RH  066%=      5-min Rain = 0
KWE2 061547Z 02013KT 08/02 A3037 RMK A01 T00760016  RH  065%=      5-min Rain = 0
KWE2 061548Z 01013KT 08/02 A3037 RMK A01 T00760015  RH  065%=      5-min Rain = 0
KWE2 061549Z 01014KT 08/02 A3037 RMK A01 T00760015  RH  065%=      5-min Rain = 0
KWE2 061550Z 01012KT 08/02 A3037 RMK A01 T00760015  RH  065%=      5-min Rain = 0
KWE2 061551Z 01013KT 08/02 A3037 RMK A01 T00760015  RH  065%=      5-min Rain = 0
KWE2 061552Z 01012KT 08/02 A3037 RMK A01 T00770016  RH  065%=      5-min Rain = 0
KWE2 061553Z 00013KT 08/02 A3037 RMK A01 T00780016  RH  065%=      5-min Rain = 0
KWE2 061554Z 00013KT 08/02 A3037 RMK A01 T00780015  RH  065%=      5-min Rain = 0
KWE2 061555Z 00014KT 08/02 A3037 RMK A01 T00780016  RH  065%=      5-min Rain = 0
KWE2 061556Z 01013KT 08/02 A3037 RMK A01 T00780015  RH  065%=      5-min Rain = 0
KWE2 061557Z 01014KT 08/02 A3037 RMK A01 T00780015  RH  064%=      5-min Rain = 0
KWE2 061558Z 01014KT 08/02 A3037 RMK A01 T00780015  RH  064%=      5-min Rain = 0
KWE2 061559Z 01013KT 08/01 A3037 RMK A01 T00780014  RH  064%=      5-min Rain = 0
KWE2 061600Z 01012KT 08/02 A3037 RMK A01 T00780015  RH  064%=      5-min Rain = 0
KWE2 061601Z 01010KT 08/02 A3037 RMK A01 T00800016  RH  064%=      5-min Rain = 0
KWE2 061602Z 00012KT 08/02 A3037 RMK A01 T00810017  RH  064%=      5-min Rain = 0
KWE2 061603Z 00015KT 08/02 A3037 RMK A01 T00820015  RH  063%=      5-min Rain = 0
KWE2 061604Z 00013KT 08/01 A3037 RMK A01 T00810014  RH  063%=      5-min Rain = 0
KWE2 061605Z 01011KT 08/02 A3037 RMK A01 T00800015  RH  064%=      5-min Rain = 0
KWE2 061606Z 01012KT 08/02 A3037 RMK A01 T00800015  RH  063%=      5-min Rain = 0
KWE2 061607Z 01011KT 08/02 A3037 RMK A01 T00800015  RH  064%=      5-min Rain = 0
KWE2 061608Z 00012KT 08/02 A3037 RMK A01 T00800015  RH  064%=      5-min Rain = 0
KWE2 061609Z 02012KT 08/02 A3037 RMK A01 T00810016  RH  063%=      5-min Rain = 0
KWE2 061610Z 36010KT 08/02 A3037 RMK A01 T00820016  RH  063%=      5-min Rain = 0
KWE2 061611Z 35010KT 08/02 A3037 RMK A01 T00840017  RH  063%=      5-min Rain = 0
KWE2 061612Z 35010KT 08/02 A3037 RMK A01 T00840017  RH  062%=      5-min Rain = 0
KWE2 061613Z 35010KT 09/02 A3037 RMK A01 T00850017  RH  062%=      5-min Rain = 0
KWE2 061614Z 34011KT 09/02 A3037 RMK A01 T00860017  RH  062%=      5-min Rain = 0
KWE2 061615Z 35010KT 09/02 A3037 RMK A01 T00860016  RH  062%=      5-min Rain = 0
KWE2 061616Z 36013KT 09/02 A3038 RMK A01 T00870017  RH  061%=      5-min Rain = 0
KWE2 061617Z 35013KT 09/02 A3038 RMK A01 T00860015  RH  061%=      5-min Rain = 0
KWE2 061618Z 36012KT 09/02 A3038 RMK A01 T00850015  RH  062%=      5-min Rain = 0
KWE2 061619Z 36012KT 09/02 A3038 RMK A01 T00850016  RH  062%=      5-min Rain = 0
KWE2 061620Z 34011KT 09/02 A3038 RMK A01 T00860016  RH  061%=      5-min Rain = 0
KWE2 061621Z 36011KT 09/02 A3038 RMK A01 T00860016  RH  061%=      5-min Rain = 0
KWE2 061622Z 34012KT 09/02 A3038 RMK A01 T00860015  RH  061%=      5-min Rain = 0
KWE2 061623Z 35014KT 09/02 A3038 RMK A01 T00860016  RH  061%=      5-min Rain = 0
KWE2 061624Z 35012KT 09/02 A3038 RMK A01 T00860015  RH  061%=      5-min Rain = 0
KWE2 061625Z 00012KT 09/02 A3038 RMK A01 T00860016  RH  062%=      5-min Rain = 0
KWE2 061626Z 00010KT 09/02 A3038 RMK A01 T00870016  RH  061%=      5-min Rain = 0
KWE2 061627Z 36010KT 09/02 A3038 RMK A01 T00880018  RH  061%=      5-min Rain = 0
KWE2 061628Z 36010KT 09/02 A3038 RMK A01 T00910019  RH  061%=      5-min Rain = 0
KWE2 061629Z 35012KT 09/02 A3038 RMK A01 T00920017  RH  059%=      5-min Rain = 0
KWE2 061630Z 00010KT 09/02 A3038 RMK A01 T00910016  RH  060%=      5-min Rain = 0
KWE2 061631Z 00011KT 09/02 A3038 RMK A01 T00900016  RH  060%=      5-min Rain = 0
KWE2 061632Z 35010KT 09/02 A3038 RMK A01 T00900016  RH  060%=      5-min Rain = 0
KWE2 061633Z 00010KT 09/02 A3038 RMK A01 T00890016  RH  060%=      5-min Rain = 0
KWE2 061634Z 01011KT 09/02 A3038 RMK A01 T00900016  RH  060%=      5-min Rain = 0
KWE2 061635Z 00011KT 09/02 A3038 RMK A01 T00910017  RH  060%=      5-min Rain = 0
KWE2 061636Z 01011KT 09/02 A3038 RMK A01 T00930017  RH  059%=      5-min Rain = 0
KWE2 061637Z 01010KT 09/02 A3038 RMK A01 T00930016  RH  058%=      5-min Rain = 0
KWE2 061638Z 00011KT 09/02 A3038 RMK A01 T00940016  RH  058%=      5-min Rain = 0
KWE2 061639Z 36010KT 09/02 A3038 RMK A01 T00940016  RH  058%=      5-min Rain = 0
KWE2 061640Z 01010KT 09/02 A3038 RMK A01 T00940016  RH  058%=      5-min Rain = 0
KWE2 061641Z 01011KT 10/02 A3038 RMK A01 T00950017  RH  058%=      5-min Rain = 0
KWE2 061642Z 01011KT 10/02 A3038 RMK A01 T00950016  RH  058%=      5-min Rain = 0
KWE2 061643Z 00010KT 09/02 A3038 RMK A01 T00940015  RH  058%=      5-min Rain = 0
KWE2 061644Z 35011KT 09/02 A3038 RMK A01 T00940016  RH  058%=      5-min Rain = 0
KWE2 061645Z 01009KT 10/02 A3038 RMK A01 T00950017  RH  058%=      5-min Rain = 0
KWE2 061646Z 02008KT 10/02 A3038 RMK A01 T00970018  RH  058%=      5-min Rain = 0
KWE2 061647Z 02008KT 10/02 A3038 RMK A01 T00990018  RH  057%=      5-min Rain = 0
KWE2 061648Z 00008KT 10/02 A3038 RMK A01 T00990017  RH  056%=      5-min Rain = 0
KWE2 061649Z 01009KT 10/02 A3038 RMK A01 T00980017  RH  057%=      5-min Rain = 0
KWE2 061650Z 01007KT 10/02 A3038 RMK A01 T00980018  RH  057%=      5-min Rain = 0
KWE2 061651Z 36008KT 10/02 A3038 RMK A01 T00980015  RH  056%=      5-min Rain = 0
KWE2 061652Z 02008KT 10/02 A3038 RMK A01 T00970016  RH  057%=      5-min Rain = 0
KWE2 061653Z 00007KT 10/02 A3038 RMK A01 T00970018  RH  058%=      5-min Rain = 0
KWE2 061654Z 35008KT 10/02 A3038 RMK A01 T00990019  RH  057%=      5-min Rain = 0
KWE2 061655Z 01008KT 10/02 A3038 RMK A01 T01000018  RH  057%=      5-min Rain = 0
KWE2 061656Z 01008KT 10/02 A3038 RMK A01 T01000018  RH  056%=      5-min Rain = 0
KWE2 061657Z 01009KT 10/02 A3038 RMK A01 T00990017  RH  057%=      5-min Rain = 0
KWE2 061658Z 02009KT 10/02 A3038 RMK A01 T01000017  RH  057%=      5-min Rain = 0
KWE2 061659Z 01009KT 10/02 A3038 RMK A01 T01000018  RH  056%=      5-min Rain = 0
KWE2 061700Z 01009KT 10/02 A3038 RMK A01 T01000017  RH  056%=      5-min Rain = 0
KWE2 061701Z 01007KT 10/02 A3038 RMK A01 T00990017  RH  057%=      5-min Rain = 0
KWE2 061702Z 02006KT 10/02 A3038 RMK A01 T00980017  RH  057%=      5-min Rain = 0
KWE2 061703Z 01007KT 10/02 A3038 RMK A01 T00990019  RH  057%=      5-min Rain = 0
KWE2 061704Z 36008KT 10/02 A3038 RMK A01 T01000017  RH  056%=      5-min Rain = 0
KWE2 061705Z 01009KT 10/02 A3038 RMK A01 T01000017  RH  056%=      5-min Rain = 0
KWE2 061706Z 01007KT 10/02 A3038 RMK A01 T01000017  RH  056%=      5-min Rain = 0
KWE2 061707Z 02006KT 10/02 A3038 RMK A01 T01000018  RH  056%=      5-min Rain = 0
KWE2 061708Z 01006KT 10/02 A3038 RMK A01 T01020019  RH  056%=      5-min Rain = 0
KWE2 061709Z 01007KT 10/02 A3038 RMK A01 T01040019  RH  056%=      5-min Rain = 0
KWE2 061710Z 02008KT 11/02 A3038 RMK A01 T01050018  RH  055%=      5-min Rain = 0
KWE2 061711Z 02007KT 11/02 A3038 RMK A01 T01050018  RH  055%=      5-min Rain = 0
KWE2 061712Z 02007KT 11/02 A3038 RMK A01 T01050018  RH  055%=      5-min Rain = 0
KWE2 061713Z 00008KT 11/02 A3038 RMK A01 T01050019  RH  055%=      5-min Rain = 0
KWE2 061714Z 35009KT 11/02 A3038 RMK A01 T01070018  RH  054%=      5-min Rain = 0
KWE2 061715Z 01008KT 11/02 A3038 RMK A01 T01070018  RH  054%=      5-min Rain = 0
KWE2 061716Z 02007KT 11/02 A3038 RMK A01 T01060017  RH  054%=      5-min Rain = 0
KWE2 061717Z 00008KT 11/02 A3038 RMK A01 T01050018  RH  055%=      5-min Rain = 0
KWE2 061718Z 00008KT 11/02 A3038 RMK A01 T01080018  RH  054%=      5-min Rain = 0
KWE2 061719Z 01008KT 11/02 A3038 RMK A01 T01080017  RH  053%=      5-min Rain = 0
KWE2 061720Z 01008KT 11/02 A3038 RMK A01 T01070017  RH  054%=      5-min Rain = 0
KWE2 061721Z 00008KT 11/02 A3038 RMK A01 T01060016  RH  054%=      5-min Rain = 0
KWE2 061722Z 01007KT 11/02 A3037 RMK A01 T01060017  RH  054%=      5-min Rain = 0
KWE2 061723Z 00009KT 11/02 A3038 RMK A01 T01070018  RH  054%=      5-min Rain = 0
KWE2 061724Z 35007KT 11/02 A3038 RMK A01 T01100018  RH  053%=      5-min Rain = 0
KWE2 061725Z 35004KT 11/02 A3038 RMK A01 T01090016  RH  053%=      5-min Rain = 0
KWE2 061726Z 36006KT 11/02 A3038 RMK A01 T01090017  RH  053%=      5-min Rain = 0
KWE2 061727Z 02007KT 11/02 A3038 RMK A01 T01100019  RH  053%=      5-min Rain = 0
KWE2 061728Z 02006KT 11/02 A3038 RMK A01 T01120019  RH  053%=      5-min Rain = 0
KWE2 061729Z 00004KT 11/02 A3038 RMK A01 T01130019  RH  052%=      5-min Rain = 0
KWE2 061730Z 35007KT 11/02 A3038 RMK A01 T01130019  RH  052%=      5-min Rain = 0
KWE2 061731Z 01007KT 11/02 A3038 RMK A01 T01130018  RH  052%=      5-min Rain = 0
KWE2 061732Z 01005KT 11/02 A3038 RMK A01 T01120016  RH  052%=      5-min Rain = 0
KWE2 061733Z 01004KT 11/02 A3038 RMK A01 T01100015  RH  052%=      5-min Rain = 0
KWE2 061734Z 01006KT 11/02 A3038 RMK A01 T01100018  RH  053%=      5-min Rain = 0
KWE2 061735Z 04007KT 11/02 A3038 RMK A01 T01130019  RH  052%=      5-min Rain = 0
KWE2 061736Z 03004KT 11/02 A3038 RMK A01 T01140018  RH  051%=      5-min Rain = 0
KWE2 061737Z 04004G9KT 11/02 A3038 RMK A01 T01140018  RH  052%=      5-min Rain = 0
KWE2 061738Z 02006KT 12/02 A3038 RMK A01 T01150017  RH  051%=      5-min Rain = 0
KWE2 061739Z 03005KT 12/02 A3038 RMK A01 T01160018  RH  051%=      5-min Rain = 0
KWE2 061740Z 36005KT 12/02 A3038 RMK A01 T01170019  RH  051%=      5-min Rain = 0
KWE2 061741Z 35006KT 12/02 A3038 RMK A01 T01180019  RH  050%=      5-min Rain = 0
KWE2 061742Z 01006KT 12/02 A3038 RMK A01 T01170018  RH  050%=      5-min Rain = 0
KWE2 061743Z 01004KT 12/02 A3038 RMK A01 T01160017  RH  051%=      5-min Rain = 0
KWE2 061744Z 01004KT 12/02 A3038 RMK A01 T01150018  RH  051%=      5-min Rain = 0
KWE2 061745Z 02004KT 12/02 A3038 RMK A01 T01150018  RH  051%=      5-min Rain = 0
KWE2 061746Z 03004KT 12/02 A3038 RMK A01 T01170020  RH  051%=      5-min Rain = 0
KWE2 061747Z 03004KT 12/02 A3038 RMK A01 T01190017  RH  050%=      5-min Rain = 0
KWE2 061748Z 03004KT 12/02 A3038 RMK A01 T01180017  RH  050%=      5-min Rain = 0
KWE2 061749Z 01005KT 12/02 A3038 RMK A01 T01170017  RH  050%=      5-min Rain = 0
KWE2 061750Z 02006KT 12/02 A3038 RMK A01 T01180017  RH  050%=      5-min Rain = 0
KWE2 061751Z 03006KT 12/02 A3038 RMK A01 T01190018  RH  050%=      5-min Rain = 0
KWE2 061752Z 04004KT 12/02 A3038 RMK A01 T01190017  RH  050%=      5-min Rain = 0
KWE2 061753Z 06004KT 12/02 A3038 RMK A01 T01190017  RH  050%=      5-min Rain = 0
KWE2 061754Z 06005KT 12/02 A3038 RMK A01 T01200018  RH  050%=      5-min Rain = 0
KWE2 061755Z 06005KT 12/02 A3038 RMK A01 T01210017  RH  049%=      5-min Rain = 0
KWE2 061756Z 02004KT 12/02 A3038 RMK A01 T01200017  RH  049%=      5-min Rain = 0
KWE2 061757Z 02005KT 12/02 A3037 RMK A01 T01210017  RH  049%=      5-min Rain = 0
KWE2 061758Z 03004KT 12/02 A3037 RMK A01 T01210017  RH  049%=      5-min Rain = 0
KWE2 061759Z 04004KT 12/02 A3037 RMK A01 T01220019  RH  049%=      5-min Rain = 0
KWE2 061800Z 03006KT 12/02 A3037 RMK A01 T01240018  RH  048%=      5-min Rain = 0
KWE2 061801Z 03007KT 13/02 A3037 RMK A01 T01250019  RH  048%=      5-min Rain = 0
KWE2 061802Z 02006KT 12/02 A3037 RMK A01 T01240016  RH  048%=      5-min Rain = 0
KWE2 061803Z 02005KT 12/02 A3037 RMK A01 T01230016  RH  048%=      5-min Rain = 0
KWE2 061804Z 02003KT 12/02 A3037 RMK A01 T01210016  RH  048%=      5-min Rain = 0
KWE2 061805Z 01003KT 12/02 A3037 RMK A01 T01210016  RH  049%=      5-min Rain = 0
KWE2 061806Z 04003KT 12/02 A3037 RMK A01 T01220018  RH  049%=      5-min Rain = 0
KWE2 061807Z 05006KT 12/02 A3037 RMK A01 T01240018  RH  049%=      5-min Rain = 0
KWE2 061808Z 04004KT 12/02 A3037 RMK A01 T01240017  RH  048%=      5-min Rain = 0
KWE2 061809Z 01004KT 12/02 A3037 RMK A01 T01230017  RH  048%=      5-min Rain = 0
KWE2 061810Z 00003KT 12/02 A3037 RMK A01 T01220015  RH  048%=      5-min Rain = 0
KWE2 061811Z 05001KT 12/02 A3037 RMK A01 T01210016  RH  049%=      5-min Rain = 0
KWE2 061812Z 33001KT 12/02 A3037 RMK A01 T01230019  RH  049%=      5-min Rain = 0
KWE2 061813Z 35003KT 13/02 A3037 RMK A01 T01250018  RH  048%=      5-min Rain = 0
KWE2 061814Z 04003KT 13/02 A3037 RMK A01 T01260018  RH  048%=      5-min Rain = 0
KWE2 061815Z 05005KT 13/02 A3037 RMK A01 T01270017  RH  047%=      5-min Rain = 0
KWE2 061816Z 04003KT 13/02 A3037 RMK A01 T01250015  RH  047%=      5-min Rain = 0
KWE2 061817Z 06003KT 13/02 A3037 RMK A01 T01250015  RH  047%=      5-min Rain = 0
KWE2 061818Z 05004KT 13/02 A3037 RMK A01 T01250015  RH  047%=      5-min Rain = 0
KWE2 061819Z 01004KT 13/02 A3037 RMK A01 T01250016  RH  047%=      5-min Rain = 0
KWE2 061820Z 02004KT 12/02 A3037 RMK A01 T01240016  RH  048%=      5-min Rain = 0
KWE2 061821Z 02004KT 12/02 A3037 RMK A01 T01240016  RH  048%=      5-min Rain = 0
KWE2 061822Z 02006KT 12/02 A3037 RMK A01 T01240017  RH  048%=      5-min Rain = 0
KWE2 061823Z 04003KT 13/02 A3037 RMK A01 T01250017  RH  047%=      5-min Rain = 0
KWE2 061824Z 03004KT 13/02 A3037 RMK A01 T01260017  RH  047%=      5-min Rain = 0
KWE2 061825Z 03003KT 13/02 A3037 RMK A01 T01250016  RH  047%=      5-min Rain = 0
KWE2 061826Z 04003KT 13/02 A3037 RMK A01 T01250017  RH  048%=      5-min Rain = 0
KWE2 061827Z 03006KT 13/02 A3037 RMK A01 T01260019  RH  048%=      5-min Rain = 0
KWE2 061828Z 00004KT 13/02 A3037 RMK A01 T01270018  RH  047%=      5-min Rain = 0
KWE2 061829Z 01004KT 13/02 A3037 RMK A01 T01260017  RH  047%=      5-min Rain = 0
KWE2 061830Z 35003KT 13/02 A3037 RMK A01 T01260016  RH  047%=      5-min Rain = 0
KWE2 061831Z 33004KT 13/02 A3037 RMK A01 T01250017  RH  048%=      5-min Rain = 0
KWE2 061832Z 31004KT 13/02 A3037 RMK A01 T01250017  RH  048%=      5-min Rain = 0
KWE2 061833Z 29003KT 13/02 A3036 RMK A01 T01250016  RH  048%=      5-min Rain = 0
KWE2 061834Z 32002KT 12/02 A3036 RMK A01 T01240017  RH  048%=      5-min Rain = 0
KWE2 061835Z 32000KT 13/02 A3036 RMK A01 T01250017  RH  048%=      5-min Rain = 0
KWE2 061836Z 35002KT 13/02 A3036 RMK A01 T01260017  RH  047%=      5-min Rain = 0
KWE2 061837Z 02005KT 13/02 A3036 RMK A01 T01260017  RH  047%=      5-min Rain = 0
KWE2 061838Z 03004KT 13/02 A3036 RMK A01 T01270016  RH  047%=      5-min Rain = 0
KWE2 061839Z 01005KT 13/02 A3036 RMK A01 T01270016  RH  047%=      5-min Rain = 0
KWE2 061840Z 04006KT 13/02 A3036 RMK A01 T01280017  RH  047%=      5-min Rain = 0
KWE2 061841Z 03005KT 13/02 A3036 RMK A01 T01280017  RH  047%=      5-min Rain = 0
KWE2 061842Z 02005KT 13/02 A3036 RMK A01 T01280016  RH  046%=      5-min Rain = 0
KWE2 061843Z 02005KT 13/02 A3036 RMK A01 T01280015  RH  046%=      5-min Rain = 0
KWE2 061844Z 03004KT 13/02 A3036 RMK A01 T01280016  RH  047%=      5-min Rain = 0
KWE2 061845Z 04003KT 13/02 A3036 RMK A01 T01280017  RH  047%=      5-min Rain = 0
KWE2 061846Z 07003KT 13/02 A3036 RMK A01 T01300018  RH  046%=      5-min Rain = 0
KWE2 061847Z 09003KT 13/02 A3036 RMK A01 T01300015  RH  045%=      5-min Rain = 0
KWE2 061848Z 08003KT 13/02 A3036 RMK A01 T01280016  RH  046%=      5-min Rain = 0
KWE2 061849Z 09002KT 13/02 A3036 RMK A01 T01290015  RH  046%=      5-min Rain = 0
KWE2 061850Z 12001KT 13/01 A3036 RMK A01 T01280013  RH  045%=      5-min Rain = 0
KWE2 061851Z 06001KT 13/02 A3036 RMK A01 T01290016  RH  046%=      5-min Rain = 0
KWE2 061852Z 01003KT 13/02 A3035 RMK A01 T01310016  RH  046%=      5-min Rain = 0
KWE2 061853Z 34001KT 13/02 A3035 RMK A01 T01310016  RH  046%=      5-min Rain = 0
KWE2 061854Z 26001KT 13/02 A3035 RMK A01 T01300015  RH  046%=      5-min Rain = 0
KWE2 061855Z 24002KT 13/02 A3035 RMK A01 T01310016  RH  046%=      5-min Rain = 0
KWE2 061856Z 23002KT 13/02 A3035 RMK A01 T01320015  RH  045%=      5-min Rain = 0
KWE2 061857Z 22001KT 13/02 A3035 RMK A01 T01320016  RH  045%=      5-min Rain = 0
KWE2 061858Z 17000KT 13/02 A3035 RMK A01 T01340018  RH  045%=      5-min Rain = 0
KWE2 061859Z 09002KT 14/02 A3035 RMK A01 T01360018  RH  045%=      5-min Rain = 0
KWE2 061900Z 09002KT 14/02 A3035 RMK A01 T01380019  RH  045%=      5-min Rain = 0
KWE2 061901Z 12002KT 14/02 A3035 RMK A01 T01380018  RH  044%=      5-min Rain = 0
KWE2 061902Z 08003KT 14/02 A3035 RMK A01 T01380018  RH  044%=      5-min Rain = 0
KWE2 061903Z 07003KT 14/02 A3035 RMK A01 T01390016  RH  043%=      5-min Rain = 0
KWE2 061904Z 07005KT 14/02 A3035 RMK A01 T01370015  RH  043%=      5-min Rain = 0
KWE2 061905Z 07004KT 14/02 A3035 RMK A01 T01360015  RH  044%=      5-min Rain = 0
KWE2 061906Z 07004KT 14/02 A3035 RMK A01 T01360015  RH  044%=      5-min Rain = 0
KWE2 061907Z 09004KT 14/02 A3035 RMK A01 T01360015  RH  044%=      5-min Rain = 0
KWE2 061908Z 09005KT 14/02 A3035 RMK A01 T01360015  RH  044%=      5-min Rain = 0
KWE2 061909Z 08004KT 13/01 A3035 RMK A01 T01330014  RH  044%=      5-min Rain = 0
KWE2 061910Z 08004KT 13/01 A3034 RMK A01 T01320014  RH  044%=      5-min Rain = 0
KWE2 061911Z 08004KT 13/01 A3034 RMK A01 T01310012  RH  044%=      5-min Rain = 0
KWE2 061912Z 08002KT 13/01 A3034 RMK A01 T01290012  RH  045%=      5-min Rain = 0
KWE2 061913Z 04001KT 13/01 A3034 RMK A01 T01290011  RH  045%=      5-min Rain = 0
KWE2 061914Z 00001KT 13/01 A3034 RMK A01 T01300010  RH  044%=      5-min Rain = 0
KWE2 061915Z 05001KT 13/01 A3034 RMK A01 T01310014  RH  045%=      5-min Rain = 0
KWE2 061916Z 13002KT 13/01 A3034 RMK A01 T01330013  RH  044%=      5-min Rain = 0
KWE2 061917Z 14003KT 14/01 A3034 RMK A01 T01350013  RH  044%=      5-min Rain = 0
KWE2 061918Z 13003KT 14/01 A3034 RMK A01 T01360013  RH  043%=      5-min Rain = 0
KWE2 061919Z 15002KT 14/01 A3034 RMK A01 T01360012  RH  043%=      5-min Rain = 0
KWE2 061920Z 14001KT 14/01 A3034 RMK A01 T01360012  RH  043%=      5-min Rain = 0
KWE2 061921Z 19002KT 14/01 A3034 RMK A01 T01350013  RH  043%=      5-min Rain = 0
KWE2 061922Z 22002KT 14/01 A3034 RMK A01 T01360011  RH  042%=      5-min Rain = 0
KWE2 061923Z 22001KT 14/01 A3034 RMK A01 T01360012  RH  043%=      5-min Rain = 0
KWE2 061924Z 21002KT 14/01 A3034 RMK A01 T01370013  RH  043%=      5-min Rain = 0
KWE2 061925Z 23001KT 14/01 A3034 RMK A01 T01370012  RH  043%=      5-min Rain = 0
KWE2 061926Z 15002KT 14/01 A3034 RMK A01 T01370014  RH  043%=      5-min Rain = 0
KWE2 061927Z 14003KT 14/01 A3034 RMK A01 T01380014  RH  043%=      5-min Rain = 0
KWE2 061928Z 12002KT 14/01 A3034 RMK A01 T01380014  RH  043%=      5-min Rain = 0
KWE2 061929Z 15003KT 14/01 A3033 RMK A01 T01370013  RH  043%=      5-min Rain = 0
KWE2 061930Z 16003KT 14/01 A3033 RMK A01 T01370012  RH  043%=      5-min Rain = 0
KWE2 061931Z 13001KT 14/01 A3033 RMK A01 T01370012  RH  043%=      5-min Rain = 0
KWE2 061932Z 11000KT 14/01 A3033 RMK A01 T01360013  RH  043%=      5-min Rain = 0
KWE2 061933Z 11002KT 14/02 A3033 RMK A01 T01370015  RH  043%=      5-min Rain = 0
KWE2 061934Z 09002KT 14/01 A3033 RMK A01 T01390014  RH  043%=      5-min Rain = 0
KWE2 061935Z 05001KT 14/02 A3033 RMK A01 T01390015  RH  043%=      5-min Rain = 0
KWE2 061936Z 09001KT 14/01 A3033 RMK A01 T01400014  RH  042%=      5-min Rain = 0
KWE2 061937Z 08002KT 14/02 A3033 RMK A01 T01400016  RH  043%=      5-min Rain = 0
KWE2 061938Z 12002KT 14/02 A3033 RMK A01 T01400015  RH  043%=      5-min Rain = 0
KWE2 061939Z 16002KT 14/01 A3033 RMK A01 T01400013  RH  042%=      5-min Rain = 0
KWE2 061940Z 04002KT 14/02 A3033 RMK A01 T01400015  RH  043%=      5-min Rain = 0
KWE2 061941Z 02001KT 14/02 A3033 RMK A01 T01410016  RH  043%=      5-min Rain = 0
KWE2 061942Z 34000KT 14/02 A3033 RMK A01 T01420016  RH  043%=      5-min Rain = 0
KWE2 061943Z 15000KT 15/02 A3033 RMK A01 T01450018  RH  042%=      5-min Rain = 0
KWE2 061944Z 17001KT 15/02 A3033 RMK A01 T01470016  RH  041%=      5-min Rain = 0
KWE2 061945Z 18002KT 15/02 A3033 RMK A01 T01480015  RH  041%=      5-min Rain = 0
KWE2 061946Z 18003KT 15/01 A3033 RMK A01 T01470013  RH  040%=      5-min Rain = 0
KWE2 061947Z 19002KT 14/01 A3033 RMK A01 T01430011  RH  041%=      5-min Rain = 0
KWE2 061948Z 18002KT 14/01 A3033 RMK A01 T01410013  RH  042%=      5-min Rain = 0
KWE2 061949Z 17002KT 14/01 A3033 RMK A01 T01410012  RH  042%=      5-min Rain = 0
KWE2 061950Z 19002KT 14/01 A3033 RMK A01 T01410012  RH  041%=      5-min Rain = 0
KWE2 061951Z 19002KT 14/01 A3033 RMK A01 T01400012  RH  042%=      5-min Rain = 0
KWE2 061952Z 18001KT 14/01 A3033 RMK A01 T01400014  RH  042%=      5-min Rain = 0
KWE2 061953Z 23001KT 14/01 A3033 RMK A01 T01400013  RH  042%=      5-min Rain = 0
KWE2 061954Z 16001KT 14/01 A3033 RMK A01 T01400012  RH  042%=      5-min Rain = 0
KWE2 061955Z 22001KT 14/01 A3033 RMK A01 T01400014  RH  042%=      5-min Rain = 0
KWE2 061956Z 30001KT 14/01 A3033 RMK A01 T01420013  RH  042%=      5-min Rain = 0
KWE2 061957Z 34002KT 14/02 A3033 RMK A01 T01420015  RH  042%=      5-min Rain = 0
KWE2 061958Z 34003KT 14/02 A3033 RMK A01 T01420015  RH  042%=      5-min Rain = 0
KWE2 061959Z 34004KT 14/02 A3033 RMK A01 T01410015  RH  042%=      5-min Rain = 0
KWE2 062000Z 33003KT 14/01 A3033 RMK A01 T01400014  RH  042%=      5-min Rain = 0
KWE2 062001Z 32003KT 14/01 A3033 RMK A01 T01390014  RH  043%=      5-min Rain = 0
KWE2 062002Z 34005KT 14/01 A3033 RMK A01 T01380014  RH  043%=      5-min Rain = 0
KWE2 062003Z 34005KT 14/01 A3033 RMK A01 T01380014  RH  043%=      5-min Rain = 0
KWE2 062004Z 34004KT 14/01 A3033 RMK A01 T01370014  RH  043%=      5-min Rain = 0
KWE2 062005Z 35003KT 14/01 A3033 RMK A01 T01380014  RH  043%=      5-min Rain = 0
KWE2 062006Z 36004KT 14/01 A3033 RMK A01 T01380014  RH  043%=      5-min Rain = 0
KWE2 062007Z 35002KT 14/01 A3033 RMK A01 T01380014  RH  043%=      5-min Rain = 0
KWE2 062008Z 36002KT 14/01 A3033 RMK A01 T01370013  RH  043%=      5-min Rain = 0
KWE2 062009Z 34002KT 14/01 A3033 RMK A01 T01370013  RH  043%=      5-min Rain = 0
KWE2 062010Z 32002KT 14/01 A3033 RMK A01 T01370014  RH  043%=      5-min Rain = 0
KWE2 062011Z 23000KT 14/01 A3033 RMK A01 T01370013  RH  043%=      5-min Rain = 0
KWE2 062012Z 26001KT 14/01 A3033 RMK A01 T01370013  RH  043%=      5-min Rain = 0
KWE2 062013Z 21001KT 14/01 A3033 RMK A01 T01380014  RH  043%=      5-min Rain = 0
KWE2 062014Z 29000KT 14/02 A3032 RMK A01 T01390016  RH  043%=      5-min Rain = 0
KWE2 062015Z 34001KT 14/01 A3032 RMK A01 T01400014  RH  042%=      5-min Rain = 0
KWE2 062016Z 34001KT 14/01 A3032 RMK A01 T01400013  RH  042%=      5-min Rain = 0
KWE2 062017Z 32003KT 14/01 A3032 RMK A01 T01390013  RH  042%=      5-min Rain = 0
KWE2 062018Z 32003KT 14/01 A3032 RMK A01 T01390013  RH  042%=      5-min Rain = 0
KWE2 062019Z 32003KT 14/01 A3032 RMK A01 T01390013  RH  042%=      5-min Rain = 0
KWE2 062020Z 31003KT 14/01 A3032 RMK A01 T01400013  RH  042%=      5-min Rain = 0
KWE2 062021Z 31002KT 14/01 A3032 RMK A01 T01390013  RH  042%=      5-min Rain = 0
KWE2 062022Z 32003KT 14/01 A3032 RMK A01 T01390013  RH  042%=      5-min Rain = 0
KWE2 062023Z 31002KT 14/01 A3032 RMK A01 T01400014  RH  042%=      5-min Rain = 0
KWE2 062024Z 33002KT 14/01 A3032 RMK A01 T01400014  RH  042%=      5-min Rain = 0
KWE2 062025Z 35002KT 14/01 A3032 RMK A01 T01410013  RH  042%=      5-min Rain = 0
KWE2 062026Z 36002KT 14/01 A3032 RMK A01 T01390013  RH  042%=      5-min Rain = 0
KWE2 062027Z 35001KT 14/01 A3032 RMK A01 T01390012  RH  042%=      5-min Rain = 0
KWE2 062028Z 29001KT 14/01 A3032 RMK A01 T01380013  RH  042%=      5-min Rain = 0
KWE2 062029Z 30002KT 14/01 A3032 RMK A01 T01390013  RH  042%=      5-min Rain = 0
KWE2 062030Z 33003KT 14/01 A3032 RMK A01 T01400013  RH  042%=      5-min Rain = 0
KWE2 062031Z 32004KT 14/01 A3032 RMK A01 T01400013  RH  042%=      5-min Rain = 0
KWE2 062032Z 33003KT 14/01 A3032 RMK A01 T01400011  RH  041%=      5-min Rain = 0
KWE2 062033Z 34001KT 14/01 A3032 RMK A01 T01390011  RH  042%=      5-min Rain = 0
KWE2 062034Z 33001KT 14/01 A3032 RMK A01 T01380011  RH  042%=      5-min Rain = 0
KWE2 062035Z 32004KT 14/01 A3032 RMK A01 T01390011  RH  042%=      5-min Rain = 0
KWE2 062036Z 33003KT 14/01 A3032 RMK A01 T01400011  RH  041%=      5-min Rain = 0
KWE2 062037Z 34002KT 14/01 A3032 RMK A01 T01390011  RH  041%=      5-min Rain = 0
KWE2 062038Z 30001KT 14/01 A3032 RMK A01 T01390012  RH  042%=      5-min Rain = 0
KWE2 062039Z 25001KT 14/01 A3032 RMK A01 T01390013  RH  042%=      5-min Rain = 0
KWE2 062040Z 23000KT 14/01 A3032 RMK A01 T01400012  RH  042%=      5-min Rain = 0
KWE2 062041Z 23000KT 14/01 A3032 RMK A01 T01420012  RH  041%=      5-min Rain = 0
KWE2 062042Z 26001KT 14/01 A3032 RMK A01 T01430013  RH  041%=      5-min Rain = 0
KWE2 062043Z 29002KT 14/01 A3032 RMK A01 T01440012  RH  041%=      5-min Rain = 0
KWE2 062044Z 29002KT 14/01 A3032 RMK A01 T01440012  RH  041%=      5-min Rain = 0
KWE2 062045Z 30001KT 14/01 A3032 RMK A01 T01430012  RH  041%=      5-min Rain = 0
KWE2 062046Z 29002KT 14/01 A3032 RMK A01 T01430013  RH  041%=      5-min Rain = 0
KWE2 062047Z 29003KT 14/01 A3032 RMK A01 T01440013  RH  041%=      5-min Rain = 0
KWE2 062048Z 30002KT 14/01 A3032 RMK A01 T01440012  RH  041%=      5-min Rain = 0
KWE2 062049Z 33001KT 14/01 A3032 RMK A01 T01430013  RH  041%=      5-min Rain = 0
KWE2 062050Z 36001KT 14/01 A3032 RMK A01 T01430012  RH  041%=      5-min Rain = 0
KWE2 062051Z 07000KT 14/01 A3032 RMK A01 T01430013  RH  041%=      5-min Rain = 0
KWE2 062052Z 10002KT 14/01 A3032 RMK A01 T01430012  RH  041%=      5-min Rain = 0
KWE2 062053Z 09003KT 14/01 A3032 RMK A01 T01430011  RH  041%=      5-min Rain = 0
KWE2 062054Z 10004KT 14/01 A3032 RMK A01 T01420011  RH  041%=      5-min Rain = 0
KWE2 062055Z 11002KT 14/01 A3032 RMK A01 T01410010  RH  041%=      5-min Rain = 0
KWE2 062056Z 13001KT 14/01 A3032 RMK A01 T01400010  RH  041%=      5-min Rain = 0
KWE2 062057Z 24000KT 14/01 A3032 RMK A01 T01410011  RH  041%=      5-min Rain = 0
KWE2 062058Z 22000KT 14/01 A3031 RMK A01 T01430011  RH  041%=      5-min Rain = 0
KWE2 062059Z 00000KT 14/01 A3031 RMK A01 T01440011  RH  040%=      5-min Rain = 0
KWE2 062100Z 10001KT 15/01 A3031 RMK A01 T01450012  RH  040%=      5-min Rain = 0
KWE2 062101Z 10002KT 15/01 A3031 RMK A01 T01460012  RH  040%=      5-min Rain = 0
KWE2 062102Z 11004KT 15/01 A3031 RMK A01 T01470013  RH  040%=      5-min Rain = 0
KWE2 062103Z 11005KT 15/01 A3031 RMK A01 T01460011  RH  040%=      5-min Rain = 0
KWE2 062104Z 10004KT 15/01 A3031 RMK A01 T01460011  RH  040%=      5-min Rain = 0
KWE2 062105Z 11005KT 15/01 A3031 RMK A01 T01450011  RH  040%=      5-min Rain = 0
KWE2 062106Z 11004KT 14/01 A3031 RMK A01 T01440010  RH  040%=      5-min Rain = 0
KWE2 062107Z 09003KT 14/01 A3031 RMK A01 T01430011  RH  041%=      5-min Rain = 0
KWE2 062108Z 11002KT 14/01 A3031 RMK A01 T01430010  RH  040%=      5-min Rain = 0
KWE2 062109Z 11003KT 14/01 A3031 RMK A01 T01430012  RH  041%=      5-min Rain = 0
KWE2 062110Z 07003KT 15/01 A3031 RMK A01 T01450013  RH  041%=      5-min Rain = 0
KWE2 062111Z 06004KT 15/01 A3031 RMK A01 T01460011  RH  040%=      5-min Rain = 0
KWE2 062112Z 06004KT 15/01 A3031 RMK A01 T01450011  RH  040%=      5-min Rain = 0
KWE2 062113Z 04003KT 14/01 A3031 RMK A01 T01440010  RH  040%=      5-min Rain = 0
KWE2 062114Z 04002KT 14/01 A3031 RMK A01 T01430010  RH  040%=      5-min Rain = 0
KWE2 062115Z 03001KT 14/01 A3031 RMK A01 T01420010  RH  041%=      5-min Rain = 0
KWE2 062116Z 00001KT 14/01 A3031 RMK A01 T01430011  RH  041%=      5-min Rain = 0
KWE2 062117Z 00001KT 14/01 A3031 RMK A01 T01430011  RH  040%=      5-min Rain = 0
KWE2 062118Z 34001KT 14/01 A3031 RMK A01 T01440011  RH  040%=      5-min Rain = 0
KWE2 062119Z 31001KT 14/01 A3031 RMK A01 T01440012  RH  040%=      5-min Rain = 0
KWE2 062120Z 28000KT 15/01 A3031 RMK A01 T01460011  RH  040%=      5-min Rain = 0
KWE2 062121Z 00000KT 15/01 A3031 RMK A01 T01470012  RH  040%=      5-min Rain = 0
KWE2 062122Z 09002KT 15/01 A3031 RMK A01 T01480012  RH  040%=      5-min Rain = 0
KWE2 062123Z 09003KT 15/01 A3031 RMK A01 T01470011  RH  040%=      5-min Rain = 0
KWE2 062124Z 11003KT 15/01 A3031 RMK A01 T01460010  RH  040%=      5-min Rain = 0
KWE2 062125Z 10004KT 15/01 A3031 RMK A01 T01450011  RH  040%=      5-min Rain = 0
KWE2 062126Z 11003KT 15/01 A3031 RMK A01 T01450010  RH  040%=      5-min Rain = 0
KWE2 062127Z 10001KT 14/01 A3031 RMK A01 T01440010  RH  040%=      5-min Rain = 0
KWE2 062128Z 12001KT 15/01 A3031 RMK A01 T01450012  RH  040%=      5-min Rain = 0
KWE2 062129Z 08000KT 15/01 A3031 RMK A01 T01460012  RH  040%=      5-min Rain = 0
KWE2 062130Z 10002KT 15/01 A3031 RMK A01 T01490013  RH  040%=      5-min Rain = 0
KWE2 062131Z 12002KT 15/01 A3031 RMK A01 T01490013  RH  040%=      5-min Rain = 0
KWE2 062132Z 05004KT 15/01 A3031 RMK A01 T01500013  RH  039%=      5-min Rain = 0
KWE2 062133Z 06004KT 15/01 A3031 RMK A01 T01490012  RH  039%=      5-min Rain = 0
KWE2 062134Z 05002KT 15/01 A3031 RMK A01 T01470011  RH  040%=      5-min Rain = 0
KWE2 062135Z 04004KT 15/01 A3031 RMK A01 T01460011  RH  040%=      5-min Rain = 0
KWE2 062136Z 05003KT 15/01 A3031 RMK A01 T01460011  RH  040%=      5-min Rain = 0
KWE2 062137Z 06002KT 15/01 A3031 RMK A01 T01450010  RH  040%=      5-min Rain = 0
KWE2 062138Z 01003KT 15/01 A3031 RMK A01 T01450011  RH  040%=      5-min Rain = 0
KWE2 062139Z 02003KT 15/01 A3031 RMK A01 T01460012  RH  040%=      5-min Rain = 0
KWE2 062140Z 02004KT 15/01 A3031 RMK A01 T01460012  RH  040%=      5-min Rain = 0
KWE2 062141Z 04004KT 15/01 A3031 RMK A01 T01460012  RH  040%=      5-min Rain = 0
KWE2 062142Z 03004KT 15/01 A3031 RMK A01 T01460011  RH  040%=      5-min Rain = 0
KWE2 062143Z 03004KT 15/01 A3031 RMK A01 T01460011  RH  040%=      5-min Rain = 0
KWE2 062144Z 05003KT 15/01 A3031 RMK A01 T01450012  RH  040%=      5-min Rain = 0
KWE2 062145Z 05003KT 15/01 A3031 RMK A01 T01450011  RH  040%=      5-min Rain = 0
KWE2 062146Z 03002KT 15/01 A3031 RMK A01 T01450010  RH  040%=      5-min Rain = 0
KWE2 062147Z 02001KT 15/01 A3031 RMK A01 T01450011  RH  040%=      5-min Rain = 0
KWE2 062148Z 27001KT 15/01 A3032 RMK A01 T01450011  RH  040%=      5-min Rain = 0
KWE2 062149Z 26001KT 15/01 A3032 RMK A01 T01460011  RH  040%=      5-min Rain = 0
KWE2 062150Z 26001KT 15/01 A3032 RMK A01 T01470011  RH  040%=      5-min Rain = 0
KWE2 062151Z 29000KT 15/01 A3032 RMK A01 T01480011  RH  039%=      5-min Rain = 0
KWE2 062152Z 31002KT 15/01 A3032 RMK A01 T01500012  RH  039%=      5-min Rain = 0
KWE2 062153Z 30002KT 15/01 A3032 RMK A01 T01510012  RH  039%=      5-min Rain = 0
KWE2 062154Z 27002KT 15/01 A3032 RMK A01 T01520011  RH  039%=      5-min Rain = 0
KWE2 062155Z 26003KT 15/01 A3032 RMK A01 T01510011  RH  039%=      5-min Rain = 0
KWE2 062156Z 27003KT 15/01 A3032 RMK A01 T01490011  RH  039%=      5-min Rain = 0
KWE2 062157Z 26003KT 15/01 A3032 RMK A01 T01480010  RH  039%=      5-min Rain = 0
KWE2 062158Z 27004KT 15/01 A3032 RMK A01 T01470011  RH  040%=      5-min Rain = 0
KWE2 062159Z 27003KT 15/01 A3032 RMK A01 T01460011  RH  040%=      5-min Rain = 0
KWE2 062200Z 26004KT 15/01 A3032 RMK A01 T01460011  RH  040%=      5-min Rain = 0
KWE2 062201Z 25002KT 15/01 A3032 RMK A01 T01460011  RH  040%=      5-min Rain = 0
KWE2 062202Z 29002KT 15/01 A3032 RMK A01 T01470012  RH  040%=      5-min Rain = 0
KWE2 062203Z 34001KT 15/01 A3032 RMK A01 T01480013  RH  040%=      5-min Rain = 0
KWE2 062204Z 01001KT 15/01 A3032 RMK A01 T01490013  RH  040%=      5-min Rain = 0
KWE2 062205Z 05001KT 15/01 A3032 RMK A01 T01500013  RH  040%=      5-min Rain = 0
KWE2 062206Z 10001KT 15/01 A3032 RMK A01 T01500014  RH  040%=      5-min Rain = 0
KWE2 062207Z 09001KT 15/01 A3032 RMK A01 T01510014  RH  039%=      5-min Rain = 0
KWE2 062208Z 01001KT 15/02 A3032 RMK A01 T01530015  RH  039%=      5-min Rain = 0
KWE2 062209Z 35002KT 15/01 A3032 RMK A01 T01530013  RH  039%=      5-min Rain = 0
KWE2 062210Z 01002KT 15/01 A3032 RMK A01 T01520012  RH  039%=      5-min Rain = 0
KWE2 062211Z 03001KT 15/01 A3032 RMK A01 T01500012  RH  039%=      5-min Rain = 0
KWE2 062212Z 06001KT 15/01 A3032 RMK A01 T01500013  RH  039%=      5-min Rain = 0
KWE2 062213Z 06001KT 15/01 A3032 RMK A01 T01500012  RH  039%=      5-min Rain = 0
KWE2 062214Z 09001KT 15/01 A3032 RMK A01 T01510014  RH  039%=      5-min Rain = 0
KWE2 062215Z 10004KT 15/01 A3032 RMK A01 T01520013  RH  039%=      5-min Rain = 0
KWE2 062216Z 10004KT 15/01 A3032 RMK A01 T01500012  RH  039%=      5-min Rain = 0
KWE2 062217Z 09003KT 15/01 A3032 RMK A01 T01490011  RH  039%=      5-min Rain = 0
KWE2 062218Z 11003KT 15/01 A3032 RMK A01 T01480012  RH  040%=      5-min Rain = 0
KWE2 062219Z 11003KT 15/01 A3032 RMK A01 T01480013  RH  040%=      5-min Rain = 0
KWE2 062220Z 11002KT 15/01 A3032 RMK A01 T01490012  RH  039%=      5-min Rain = 0
KWE2 062221Z 10001KT 15/01 A3032 RMK A01 T01480011  RH  039%=      5-min Rain = 0
KWE2 062222Z 16000KT 15/01 A3032 RMK A01 T01480012  RH  040%=      5-min Rain = 0
KWE2 062223Z 14001KT 15/01 A3032 RMK A01 T01500012  RH  039%=      5-min Rain = 0
KWE2 062224Z 33000KT 15/01 A3032 RMK A01 T01510012  RH  039%=      5-min Rain = 0
KWE2 062225Z 32000KT 15/01 A3032 RMK A01 T01520013  RH  039%=      5-min Rain = 0
KWE2 062226Z 34001KT 15/01 A3032 RMK A01 T01510014  RH  039%=      5-min Rain = 0
KWE2 062227Z 02001KT 15/01 A3032 RMK A01 T01520013  RH  039%=      5-min Rain = 0
KWE2 062228Z 06003KT 15/01 A3032 RMK A01 T01510013  RH  039%=      5-min Rain = 0
KWE2 062229Z 05003KT 15/01 A3032 RMK A01 T01500012  RH  039%=      5-min Rain = 0
KWE2 062230Z 03003KT 15/01 A3032 RMK A01 T01490012  RH  039%=      5-min Rain = 0
KWE2 062231Z 02003KT 15/01 A3032 RMK A01 T01490013  RH  040%=      5-min Rain = 0
KWE2 062232Z 01002KT 15/01 A3032 RMK A01 T01480012  RH  039%=      5-min Rain = 0
KWE2 062233Z 02002KT 15/01 A3032 RMK A01 T01470012  RH  040%=      5-min Rain = 0
KWE2 062234Z 05002KT 15/01 A3031 RMK A01 T01470012  RH  040%=      5-min Rain = 0
KWE2 062235Z 05003KT 15/01 A3031 RMK A01 T01470012  RH  040%=      5-min Rain = 0
KWE2 062236Z 05003KT 15/01 A3031 RMK A01 T01470012  RH  040%=      5-min Rain = 0
KWE2 062237Z 05003KT 15/01 A3031 RMK A01 T01470013  RH  040%=      5-min Rain = 0
KWE2 062238Z 05002KT 15/01 A3031 RMK A01 T01470012  RH  040%=      5-min Rain = 0
KWE2 062239Z 04002KT 15/01 A3031 RMK A01 T01460012  RH  040%=      5-min Rain = 0
KWE2 062240Z 02002KT 15/01 A3031 RMK A01 T01470012  RH  040%=      5-min Rain = 0
KWE2 062241Z 01002KT 15/01 A3032 RMK A01 T01470012  RH  040%=      5-min Rain = 0
KWE2 062242Z 01002KT 15/01 A3032 RMK A01 T01460011  RH  040%=      5-min Rain = 0
KWE2 062243Z 02002KT 15/01 A3032 RMK A01 T01450012  RH  040%=      5-min Rain = 0
KWE2 062244Z 10002KT 15/01 A3032 RMK A01 T01450013  RH  041%=      5-min Rain = 0
KWE2 062245Z 13002KT 15/01 A3032 RMK A01 T01460014  RH  041%=      5-min Rain = 0
KWE2 062246Z 12002KT 15/01 A3032 RMK A01 T01470013  RH  040%=      5-min Rain = 0
KWE2 062247Z 12003KT 15/01 A3032 RMK A01 T01470011  RH  040%=      5-min Rain = 0
KWE2 062248Z 12002KT 15/01 A3032 RMK A01 T01450011  RH  040%=      5-min Rain = 0
KWE2 062249Z 11003KT 15/01 A3032 RMK A01 T01450011  RH  040%=      5-min Rain = 0
KWE2 062250Z 10003KT 15/01 A3032 RMK A01 T01450011  RH  040%=      5-min Rain = 0
KWE2 062251Z 11002KT 15/01 A3032 RMK A01 T01450011  RH  040%=      5-min Rain = 0
KWE2 062252Z 11003KT 15/01 A3032 RMK A01 T01450012  RH  040%=      5-min Rain = 0
KWE2 062253Z 12003KT 15/01 A3032 RMK A01 T01450012  RH  040%=      5-min Rain = 0
KWE2 062254Z 10002KT 15/01 A3032 RMK A01 T01450012  RH  040%=      5-min Rain = 0
KWE2 062255Z 11002KT 15/01 A3032 RMK A01 T01450011  RH  040%=      5-min Rain = 0
KWE2 062256Z 13003KT 14/01 A3032 RMK A01 T01440011  RH  040%=      5-min Rain = 0
KWE2 062257Z 13003KT 14/01 A3032 RMK A01 T01440011  RH  040%=      5-min Rain = 0
KWE2 062258Z 14003KT 14/01 A3032 RMK A01 T01440012  RH  040%=      5-min Rain = 0
KWE2 062259Z 14002KT 14/01 A3032 RMK A01 T01440011  RH  040%=      5-min Rain = 0
KWE2 062300Z 15002KT 15/01 A3032 RMK A01 T01450011  RH  040%=      5-min Rain = 0
KWE2 062301Z 15001KT 15/01 A3032 RMK A01 T01450011  RH  040%=      5-min Rain = 0
KWE2 062302Z 17002KT 15/01 A3032 RMK A01 T01450011  RH  040%=      5-min Rain = 0
KWE2 062303Z 18001KT 15/01 A3032 RMK A01 T01450011  RH  040%=      5-min Rain = 0
KWE2 062304Z 18001KT 15/01 A3032 RMK A01 T01450010  RH  040%=      5-min Rain = 0
KWE2 062305Z 19001KT 15/01 A3032 RMK A01 T01450010  RH  040%=      5-min Rain = 0
KWE2 062306Z 19001KT 15/01 A3032 RMK A01 T01450011  RH  040%=      5-min Rain = 0
KWE2 062307Z 13000KT 15/01 A3032 RMK A01 T01450011  RH  040%=      5-min Rain = 0
KWE2 062308Z 14001KT 15/01 A3032 RMK A01 T01450012  RH  040%=      5-min Rain = 0
KWE2 062309Z 15001KT 15/01 A3032 RMK A01 T01450012  RH  040%=      5-min Rain = 0
KWE2 062310Z 15001KT 15/01 A3032 RMK A01 T01450012  RH  040%=      5-min Rain = 0
KWE2 062311Z 16001KT 15/01 A3032 RMK A01 T01450012  RH  040%=      5-min Rain = 0
KWE2 062312Z 16001KT 14/01 A3032 RMK A01 T01440013  RH  041%=      5-min Rain = 0
KWE2 062313Z 16001KT 14/01 A3032 RMK A01 T01440012  RH  041%=      5-min Rain = 0
KWE2 062314Z 16002KT 14/01 A3032 RMK A01 T01440013  RH  041%=      5-min Rain = 0
KWE2 062315Z 15002KT 14/01 A3032 RMK A01 T01430013  RH  041%=      5-min Rain = 0
KWE2 062316Z 12001KT 14/01 A3032 RMK A01 T01430013  RH  041%=      5-min Rain = 0
KWE2 062317Z 12001KT 14/01 A3032 RMK A01 T01430013  RH  041%=      5-min Rain = 0
KWE2 062318Z 13001KT 14/01 A3032 RMK A01 T01430012  RH  041%=      5-min Rain = 0
KWE2 062319Z 16001KT 14/01 A3032 RMK A01 T01420013  RH  042%=      5-min Rain = 0
KWE2 062320Z 15001KT 14/01 A3032 RMK A01 T01420013  RH  042%=      5-min Rain = 0
KWE2 062321Z 14002KT 14/01 A3032 RMK A01 T01410012  RH  042%=      5-min Rain = 0
KWE2 062322Z 14001KT 14/01 A3032 RMK A01 T01410013  RH  042%=      5-min Rain = 0
KWE2 062323Z 13002KT 14/01 A3032 RMK A01 T01400013  RH  042%=      5-min Rain = 0
KWE2 062324Z 12002KT 14/01 A3032 RMK A01 T01390013  RH  042%=      5-min Rain = 0
KWE2 062325Z 11003KT 14/01 A3032 RMK A01 T01370013  RH  043%=      5-min Rain = 0
KWE2 062326Z 11003KT 14/01 A3032 RMK A01 T01360013  RH  043%=      5-min Rain = 0
KWE2 062327Z 11003KT 14/01 A3032 RMK A01 T01350013  RH  044%=      5-min Rain = 0
KWE2 062328Z 11002KT 13/01 A3032 RMK A01 T01340014  RH  044%=      5-min Rain = 0
KWE2 062329Z 12002KT 13/01 A3032 RMK A01 T01340013  RH  044%=      5-min Rain = 0
KWE2 062330Z 11002KT 13/01 A3032 RMK A01 T01330013  RH  044%=      5-min Rain = 0
KWE2 062331Z 11002KT 13/01 A3032 RMK A01 T01330014  RH  044%=      5-min Rain = 0
KWE2 062332Z 12002KT 13/01 A3032 RMK A01 T01320013  RH  044%=      5-min Rain = 0
KWE2 062333Z 12002KT 13/01 A3032 RMK A01 T01320013  RH  044%=      5-min Rain = 0
KWE2 062334Z 11002KT 13/01 A3032 RMK A01 T01320014  RH  044%=      5-min Rain = 0
KWE2 062335Z 11001KT 13/01 A3032 RMK A01 T01320013  RH  044%=      5-min Rain = 0
KWE2 062336Z 11001KT 13/01 A3032 RMK A01 T01310014  RH  045%=      5-min Rain = 0
KWE2 062337Z 10001KT 13/01 A3032 RMK A01 T01310014  RH  045%=      5-min Rain = 0
KWE2 062338Z 10001KT 13/01 A3032 RMK A01 T01310014  RH  045%=      5-min Rain = 0
KWE2 062339Z 09001KT 13/01 A3032 RMK A01 T01300014  RH  045%=      5-min Rain = 0
KWE2 062340Z 07001KT 13/02 A3032 RMK A01 T01300015  RH  046%=      5-min Rain = 0
KWE2 062341Z 07001KT 13/02 A3032 RMK A01 T01290015  RH  046%=      5-min Rain = 0
KWE2 062342Z 07002KT 13/02 A3032 RMK A01 T01280015  RH  046%=      5-min Rain = 0
KWE2 062343Z 07002KT 13/02 A3032 RMK A01 T01280015  RH  046%=      5-min Rain = 0
KWE2 062344Z 06001KT 13/02 A3032 RMK A01 T01270016  RH  047%=      5-min Rain = 0
KWE2 062345Z 07001KT 13/02 A3032 RMK A01 T01260015  RH  047%=      5-min Rain = 0
KWE2 062346Z 09001KT 13/02 A3032 RMK A01 T01250015  RH  047%=      5-min Rain = 0
KWE2 062347Z 09001KT 13/02 A3032 RMK A01 T01250015  RH  047%=      5-min Rain = 0
KWE2 062348Z 11001KT 12/02 A3032 RMK A01 T01240015  RH  047%=      5-min Rain = 0
KWE2 062349Z 12001KT 12/02 A3032 RMK A01 T01230015  RH  048%=      5-min Rain = 0
KWE2 062350Z 12002KT 12/02 A3032 RMK A01 T01220015  RH  048%=      5-min Rain = 0
KWE2 062351Z 13002KT 12/02 A3032 RMK A01 T01210015  RH  048%=      5-min Rain = 0
KWE2 062352Z 13003KT 12/02 A3032 RMK A01 T01200016  RH  049%=      5-min Rain = 0
KWE2 062353Z 12003KT 12/02 A3032 RMK A01 T01190016  RH  050%=      5-min Rain = 0
KWE2 062354Z 12003KT 12/02 A3032 RMK A01 T01170016  RH  050%=      5-min Rain = 0
KWE2 062355Z 12003KT 12/02 A3032 RMK A01 T01160016  RH  050%=      5-min Rain = 0
KWE2 062356Z 13003KT 11/02 A3032 RMK A01 T01140015  RH  050%=      5-min Rain = 0
KWE2 062357Z 13003KT 11/02 A3032 RMK A01 T01130015  RH  051%=      5-min Rain = 0
KWE2 062358Z 13003KT 11/01 A3032 RMK A01 T01110014  RH  051%=      5-min Rain = 0
KWE2 062359Z 13003KT 11/01 A3032 RMK A01 T01100014  RH  051%=      5-min Rain = 0
KWE2 070000Z 13003KT 11/01 A3032 RMK A01 T01100014  RH  052%=      5-min Rain = 0
KWE2 070001Z 13003KT 11/01 A3032 RMK A01 T01100014  RH  052%=      5-min Rain = 0
KWE2 070002Z 12003KT 11/01 A3032 RMK A01 T01100014  RH  052%=      5-min Rain = 0
KWE2 070003Z 12003KT 11/01 A3032 RMK A01 T01090014  RH  052%=      5-min Rain = 0
KWE2 070004Z 11003KT 11/01 A3032 RMK A01 T01070013  RH  052%=      5-min Rain = 0
KWE2 070005Z 11003KT 11/01 A3032 RMK A01 T01070013  RH  052%=      5-min Rain = 0
KWE2 070006Z 12003KT 11/01 A3032 RMK A01 T01060013  RH  053%=      5-min Rain = 0
KWE2 070007Z 12003KT 11/01 A3032 RMK A01 T01060013  RH  053%=      5-min Rain = 0
KWE2 070008Z 12003KT 11/01 A3032 RMK A01 T01060014  RH  053%=      5-min Rain = 0
KWE2 070009Z 11003KT 11/01 A3032 RMK A01 T01060014  RH  053%=      5-min Rain = 0
KWE2 070010Z 11003KT 11/01 A3032 RMK A01 T01070014  RH  053%=      5-min Rain = 0
KWE2 070011Z 11003KT 11/01 A3032 RMK A01 T01080014  RH  053%=      5-min Rain = 0
KWE2 070012Z 12003KT 11/02 A3032 RMK A01 T01080016  RH  053%=      5-min Rain = 0
KWE2 070013Z 12003KT 11/02 A3032 RMK A01 T01090016  RH  053%=      5-min Rain = 0
KWE2 070014Z 12003KT 11/02 A3032 RMK A01 T01090016  RH  053%=      5-min Rain = 0
KWE2 070015Z 12003KT 11/02 A3032 RMK A01 T01090016  RH  053%=      5-min Rain = 0
KWE2 070016Z 12003KT 11/02 A3033 RMK A01 T01080015  RH  053%=      5-min Rain = 0
KWE2 070017Z 12003KT 11/01 A3033 RMK A01 T01080014  RH  052%=      5-min Rain = 0
KWE2 070018Z 12003KT 11/01 A3033 RMK A01 T01080014  RH  052%=      5-min Rain = 0
KWE2 070019Z 12003KT 11/01 A3033 RMK A01 T01060014  RH  053%=      5-min Rain = 0
KWE2 070020Z 12003KT 10/01 A3033 RMK A01 T01040014  RH  054%=      5-min Rain = 0
KWE2 070021Z 13003KT 10/01 A3033 RMK A01 T01040013  RH  053%=      5-min Rain = 0
KWE2 070022Z 13003KT 10/01 A3033 RMK A01 T01040014  RH  054%=      5-min Rain = 0
KWE2 070023Z 13004KT 10/01 A3033 RMK A01 T01040014  RH  054%=      5-min Rain = 0
KWE2 070024Z 13004KT 10/01 A3033 RMK A01 T01040014  RH  054%=      5-min Rain = 0
KWE2 070025Z 13004KT 10/01 A3033 RMK A01 T01030014  RH  054%=      5-min Rain = 0
KWE2 070026Z 13004KT 10/01 A3033 RMK A01 T01020014  RH  054%=      5-min Rain = 0
KWE2 070027Z 14003KT 10/01 A3033 RMK A01 T01020014  RH  055%=      5-min Rain = 0
KWE2 070028Z 14003KT 10/01 A3033 RMK A01 T00990014  RH  055%=      5-min Rain = 0
KWE2 070029Z 14003KT 10/01 A3033 RMK A01 T00970013  RH  056%=      5-min Rain = 0
KWE2 070030Z 14004KT 10/01 A3033 RMK A01 T00960013  RH  056%=      5-min Rain = 0
KWE2 070031Z 13004KT 10/01 A3033 RMK A01 T00950013  RH  057%=      5-min Rain = 0
KWE2 070032Z 13004KT 09/01 A3032 RMK A01 T00930013  RH  057%=      5-min Rain = 0
KWE2 070033Z 13004KT 09/01 A3032 RMK A01 T00940013  RH  057%=      5-min Rain = 0
KWE2 070034Z 13004KT 10/01 A3032 RMK A01 T00970014  RH  056%=      5-min Rain = 0
KWE2 070035Z 13004KT 10/01 A3032 RMK A01 T00990014  RH  056%=      5-min Rain = 0
KWE2 070036Z 13004KT 10/01 A3032 RMK A01 T01000014  RH  055%=      5-min Rain = 0
KWE2 070037Z 13004KT 10/01 A3032 RMK A01 T01000014  RH  055%=      5-min Rain = 0
KWE2 070038Z 12004KT 10/01 A3032 RMK A01 T00990013  RH  055%=      5-min Rain = 0
KWE2 070039Z 12004KT 10/01 A3033 RMK A01 T00980014  RH  056%=      5-min Rain = 0
KWE2 070040Z 12004KT 10/01 A3033 RMK A01 T00970014  RH  057%=      5-min Rain = 0
KWE2 070041Z 12004KT 10/02 A3033 RMK A01 T00960015  RH  057%=      5-min Rain = 0
KWE2 070042Z 12004KT 10/01 A3033 RMK A01 T00950013  RH  056%=      5-min Rain = 0
KWE2 070043Z 11003KT 10/01 A3033 RMK A01 T00950014  RH  057%=      5-min Rain = 0
KWE2 070044Z 11004KT 09/02 A3033 RMK A01 T00930016  RH  058%=      5-min Rain = 0
KWE2 070045Z 11004KT 09/02 A3033 RMK A01 T00920016  RH  059%=      5-min Rain = 0
KWE2 070046Z 11004KT 09/01 A3033 RMK A01 T00920014  RH  058%=      5-min Rain = 0
KWE2 070047Z 11004KT 09/01 A3033 RMK A01 T00910013  RH  058%=      5-min Rain = 0
KWE2 070048Z 11004KT 09/01 A3033 RMK A01 T00890013  RH  059%=      5-min Rain = 0
KWE2 070049Z 11004KT 09/01 A3033 RMK A01 T00890014  RH  059%=      5-min Rain = 0
KWE2 070050Z 11004KT 09/01 A3033 RMK A01 T00880014  RH  060%=      5-min Rain = 0
KWE2 070051Z 11004KT 09/01 A3033 RMK A01 T00880014  RH  060%=      5-min Rain = 0
KWE2 070052Z 11004KT 09/01 A3033 RMK A01 T00880014  RH  060%=      5-min Rain = 0
KWE2 070053Z 10004KT 09/01 A3033 RMK A01 T00870014  RH  060%=      5-min Rain = 0
KWE2 070054Z 10004KT 09/01 A3033 RMK A01 T00860014  RH  060%=      5-min Rain = 0
KWE2 070055Z 11004KT 09/01 A3033 RMK A01 T00870014  RH  060%=      5-min Rain = 0
KWE2 070056Z 11004KT 09/01 A3033 RMK A01 T00870014  RH  060%=      5-min Rain = 0
KWE2 070057Z 10004KT 09/01 A3033 RMK A01 T00870014  RH  060%=      5-min Rain = 0
KWE2 070058Z 11005KT 09/01 A3033 RMK A01 T00860013  RH  060%=      5-min Rain = 0
KWE2 070059Z 11005KT 09/01 A3033 RMK A01 T00860013  RH  060%=      5-min Rain = 0
KWE2 070100Z 11005KT 09/01 A3033 RMK A01 T00870013  RH  060%=      5-min Rain = 0
KWE2 070101Z 11005KT 09/01 A3033 RMK A01 T00880013  RH  059%=      5-min Rain = 0
KWE2 070102Z 11005KT 09/01 A3033 RMK A01 T00880013  RH  059%=      5-min Rain = 0
KWE2 070103Z 11005KT 09/01 A3033 RMK A01 T00880013  RH  060%=      5-min Rain = 0
KWE2 070104Z 11005KT 09/01 A3033 RMK A01 T00870013  RH  060%=      5-min Rain = 0
KWE2 070105Z 11005KT 09/01 A3033 RMK A01 T00860012  RH  060%=      5-min Rain = 0
KWE2 070106Z 11004KT 09/01 A3033 RMK A01 T00860013  RH  060%=      5-min Rain = 0
KWE2 070107Z 11005KT 09/01 A3033 RMK A01 T00860012  RH  060%=      5-min Rain = 0
KWE2 070108Z 11005KT 09/01 A3033 RMK A01 T00870013  RH  060%=      5-min Rain = 0
KWE2 070109Z 11005KT 09/01 A3033 RMK A01 T00860012  RH  060%=      5-min Rain = 0
KWE2 070110Z 11005KT 08/01 A3033 RMK A01 T00840012  RH  060%=      5-min Rain = 0
KWE2 070111Z 11005KT 08/01 A3033 RMK A01 T00830012  RH  061%=      5-min Rain = 0
KWE2 070112Z 12005KT 08/01 A3033 RMK A01 T00830012  RH  061%=      5-min Rain = 0
KWE2 070113Z 12005KT 08/01 A3033 RMK A01 T00820012  RH  061%=      5-min Rain = 0
KWE2 070114Z 12005KT 08/01 A3033 RMK A01 T00810012  RH  062%=      5-min Rain = 0
KWE2 070115Z 12004KT 08/01 A3033 RMK A01 T00810012  RH  062%=      5-min Rain = 0
KWE2 070116Z 12004KT 08/01 A3033 RMK A01 T00810012  RH  062%=      5-min Rain = 0
KWE2 070117Z 12004KT 08/01 A3033 RMK A01 T00820012  RH  061%=      5-min Rain = 0
KWE2 070118Z 12004KT 08/01 A3033 RMK A01 T00820012  RH  061%=      5-min Rain = 0
KWE2 070119Z 12004KT 08/01 A3033 RMK A01 T00820012  RH  062%=      5-min Rain = 0
KWE2 070120Z 12004KT 08/01 A3033 RMK A01 T00810012  RH  062%=      5-min Rain = 0
KWE2 070121Z 12004KT 08/01 A3033 RMK A01 T00810012  RH  062%=      5-min Rain = 0
KWE2 070122Z 12005KT 08/01 A3033 RMK A01 T00800012  RH  062%=      5-min Rain = 0
KWE2 070123Z 12005KT 08/01 A3033 RMK A01 T00790012  RH  062%=      5-min Rain = 0
KWE2 070124Z 12005KT 08/01 A3033 RMK A01 T00790012  RH  062%=      5-min Rain = 0
KWE2 070125Z 12005KT 08/01 A3033 RMK A01 T00800012  RH  062%=      5-min Rain = 0
KWE2 070126Z 12005KT 08/01 A3033 RMK A01 T00800012  RH  062%=      5-min Rain = 0
KWE2 070127Z 12005KT 08/01 A3033 RMK A01 T00800012  RH  062%=      5-min Rain = 0
KWE2 070128Z 13005KT 08/01 A3033 RMK A01 T00790013  RH  063%=      5-min Rain = 0
KWE2 070129Z 12005KT 08/01 A3033 RMK A01 T00780012  RH  063%=      5-min Rain = 0
KWE2 070130Z 13005KT 08/01 A3033 RMK A01 T00770012  RH  063%=      5-min Rain = 0
KWE2 070131Z 13005KT 08/01 A3033 RMK A01 T00760012  RH  064%=      5-min Rain = 0
KWE2 070132Z 13005KT 08/01 A3033 RMK A01 T00750012  RH  064%=      5-min Rain = 0
KWE2 070133Z 12005KT 08/01 A3033 RMK A01 T00750012  RH  064%=      5-min Rain = 0
KWE2 070134Z 12005KT 08/01 A3033 RMK A01 T00750013  RH  064%=      5-min Rain = 0
KWE2 070135Z 12005KT 08/01 A3033 RMK A01 T00750013  RH  065%=      5-min Rain = 0
KWE2 070136Z 12005KT 08/01 A3033 RMK A01 T00760014  RH  065%=      5-min Rain = 0
KWE2 070137Z 12005KT 08/01 A3033 RMK A01 T00770014  RH  064%=      5-min Rain = 0
KWE2 070138Z 12005KT 08/01 A3033 RMK A01 T00770014  RH  064%=      5-min Rain = 0
KWE2 070139Z 12005KT 08/01 A3033 RMK A01 T00780014  RH  064%=      5-min Rain = 0
KWE2 070140Z 12005KT 08/01 A3033 RMK A01 T00780013  RH  064%=      5-min Rain = 0
KWE2 070141Z 12005KT 08/01 A3033 RMK A01 T00780013  RH  064%=      5-min Rain = 0
KWE2 070142Z 12005KT 08/01 A3033 RMK A01 T00770013  RH  064%=      5-min Rain = 0
KWE2 070143Z 12005KT 08/01 A3033 RMK A01 T00770013  RH  064%=      5-min Rain = 0
KWE2 070144Z 12005KT 08/01 A3033 RMK A01 T00770014  RH  064%=      5-min Rain = 0
KWE2 070145Z 12005KT 08/01 A3033 RMK A01 T00780014  RH  064%=      5-min Rain = 0
KWE2 070146Z 12005KT 08/01 A3033 RMK A01 T00770013  RH  064%=      5-min Rain = 0
KWE2 070147Z 12005KT 08/01 A3033 RMK A01 T00770013  RH  064%=      5-min Rain = 0
KWE2 070148Z 12005KT 08/01 A3033 RMK A01 T00780013  RH  063%=      5-min Rain = 0
KWE2 070149Z 12005KT 08/01 A3033 RMK A01 T00780013  RH  063%=      5-min Rain = 0
KWE2 070150Z 12005KT 08/01 A3033 RMK A01 T00780012  RH  063%=      5-min Rain = 0
KWE2 070151Z 12005KT 08/01 A3033 RMK A01 T00770012  RH  063%=      5-min Rain = 0
KWE2 070152Z 11006KT 08/01 A3033 RMK A01 T00760012  RH  064%=      5-min Rain = 0
KWE2 070153Z 11006KT 08/01 A3033 RMK A01 T00750012  RH  064%=      5-min Rain = 0
KWE2 070154Z 11006KT 08/01 A3033 RMK A01 T00750012  RH  064%=      5-min Rain = 0
KWE2 070155Z 11006KT 08/01 A3033 RMK A01 T00750012  RH  065%=      5-min Rain = 0
KWE2 070156Z 11006KT 08/01 A3033 RMK A01 T00750013  RH  065%=      5-min Rain = 0
KWE2 070157Z 11005KT 07/01 A3033 RMK A01 T00740013  RH  065%=      5-min Rain = 0
KWE2 070158Z 11005KT 07/01 A3033 RMK A01 T00740013  RH  065%=      5-min Rain = 0
KWE2 070159Z 12005KT 07/01 A3033 RMK A01 T00740013  RH  065%=      5-min Rain = 0
KWE2 070200Z 12005KT 07/01 A3033 RMK A01 T00740013  RH  065%=      5-min Rain = 0
KWE2 070201Z 11005KT 08/01 A3033 RMK A01 T00750013  RH  065%=      5-min Rain = 0
KWE2 070202Z 12004KT 08/01 A3033 RMK A01 T00750013  RH  065%=      5-min Rain = 0
KWE2 070203Z 12004KT 08/01 A3033 RMK A01 T00750013  RH  065%=      5-min Rain = 0
KWE2 070204Z 11004KT 07/01 A3033 RMK A01 T00740013  RH  065%=      5-min Rain = 0
KWE2 070205Z 11004KT 07/01 A3033 RMK A01 T00740013  RH  065%=      5-min Rain = 0
KWE2 070206Z 12004KT 07/01 A3033 RMK A01 T00730013  RH  066%=      5-min Rain = 0
KWE2 070207Z 12005KT 07/01 A3033 RMK A01 T00740014  RH  066%=      5-min Rain = 0
KWE2 070208Z 12005KT 07/01 A3033 RMK A01 T00740014  RH  066%=      5-min Rain = 0
KWE2 070209Z 12005KT 07/01 A3033 RMK A01 T00740014  RH  066%=      5-min Rain = 0
KWE2 070210Z 12005KT 07/01 A3033 RMK A01 T00740014  RH  066%=      5-min Rain = 0
KWE2 070211Z 12005KT 08/01 A3033 RMK A01 T00750014  RH  065%=      5-min Rain = 0
KWE2 070212Z 13005KT 08/01 A3033 RMK A01 T00750014  RH  065%=      5-min Rain = 0
KWE2 070213Z 13005KT 08/01 A3033 RMK A01 T00750014  RH  065%=      5-min Rain = 0
KWE2 070214Z 13005KT 08/01 A3033 RMK A01 T00750014  RH  065%=      5-min Rain = 0
KWE2 070215Z 13005KT 07/01 A3033 RMK A01 T00740013  RH  065%=      5-min Rain = 0
KWE2 070216Z 13005KT 07/01 A3033 RMK A01 T00730013  RH  065%=      5-min Rain = 0
KWE2 070217Z 13005KT 07/01 A3033 RMK A01 T00720013  RH  066%=      5-min Rain = 0
KWE2 070218Z 12005KT 07/01 A3033 RMK A01 T00720013  RH  066%=      5-min Rain = 0
KWE2 070219Z 12005KT 07/01 A3033 RMK A01 T00720013  RH  066%=      5-min Rain = 0
KWE2 070220Z 13005KT 07/01 A3033 RMK A01 T00720013  RH  066%=      5-min Rain = 0
KWE2 070221Z 12005KT 07/01 A3033 RMK A01 T00720012  RH  066%=      5-min Rain = 0
KWE2 070222Z 12005KT 07/01 A3033 RMK A01 T00710012  RH  066%=      5-min Rain = 0
KWE2 070223Z 12005KT 07/01 A3033 RMK A01 T00710013  RH  067%=      5-min Rain = 0
KWE2 070224Z 12005KT 07/01 A3033 RMK A01 T00700013  RH  067%=      5-min Rain = 0
KWE2 070225Z 12005KT 07/01 A3033 RMK A01 T00700013  RH  067%=      5-min Rain = 0
KWE2 070226Z 13005KT 07/01 A3033 RMK A01 T00700013  RH  067%=      5-min Rain = 0
KWE2 070227Z 13005KT 07/01 A3033 RMK A01 T00690012  RH  067%=      5-min Rain = 0
KWE2 070228Z 13005KT 07/01 A3033 RMK A01 T00680011  RH  067%=      5-min Rain = 0
KWE2 070229Z 12005KT 07/01 A3033 RMK A01 T00680012  RH  067%=      5-min Rain = 0
KWE2 070230Z 12005KT 07/01 A3033 RMK A01 T00680012  RH  067%=      5-min Rain = 0
KWE2 070231Z 12005KT 07/01 A3033 RMK A01 T00670011  RH  068%=      5-min Rain = 0
KWE2 070232Z 12004KT 07/01 A3033 RMK A01 T00660012  RH  069%=      5-min Rain = 0
KWE2 070233Z 12004KT 07/01 A3033 RMK A01 T00650012  RH  069%=      5-min Rain = 0
KWE2 070234Z 12005KT 07/01 A3033 RMK A01 T00650012  RH  069%=      5-min Rain = 0
KWE2 070235Z 12005KT 07/01 A3033 RMK A01 T00660012  RH  068%=      5-min Rain = 0
KWE2 070236Z 12005KT 07/01 A3033 RMK A01 T00670012  RH  068%=      5-min Rain = 0
KWE2 070237Z 12005KT 07/01 A3033 RMK A01 T00670011  RH  068%=      5-min Rain = 0
KWE2 070238Z 13005KT 07/01 A3033 RMK A01 T00660011  RH  068%=      5-min Rain = 0
KWE2 070239Z 13005KT 07/01 A3033 RMK A01 T00660011  RH  068%=      5-min Rain = 0
KWE2 070240Z 12005KT 07/01 A3033 RMK A01 T00650011  RH  068%=      5-min Rain = 0
KWE2 070241Z 13005KT 07/01 A3033 RMK A01 T00660012  RH  068%=      5-min Rain = 0
KWE2 070242Z 13005KT 07/01 A3033 RMK A01 T00650011  RH  069%=      5-min Rain = 0
KWE2 070243Z 13005KT 07/01 A3033 RMK A01 T00650012  RH  069%=      5-min Rain = 0
KWE2 070244Z 13005KT 06/01 A3033 RMK A01 T00640012  RH  069%=      5-min Rain = 0
KWE2 070245Z 13005KT 06/01 A3033 RMK A01 T00640012  RH  069%=      5-min Rain = 0
KWE2 070246Z 13005KT 06/01 A3033 RMK A01 T00630012  RH  070%=      5-min Rain = 0
KWE2 070247Z 13005KT 06/01 A3033 RMK A01 T00630012  RH  070%=      5-min Rain = 0
KWE2 070248Z 13005KT 06/01 A3033 RMK A01 T00630012  RH  070%=      5-min Rain = 0
KWE2 070249Z 13005KT 06/01 A3033 RMK A01 T00640013  RH  070%=      5-min Rain = 0
KWE2 070250Z 13005KT 06/01 A3033 RMK A01 T00640013  RH  070%=      5-min Rain = 0
KWE2 070251Z 13005KT 07/01 A3033 RMK A01 T00650013  RH  069%=      5-min Rain = 0
KWE2 070252Z 13005KT 07/01 A3033 RMK A01 T00650013  RH  069%=      5-min Rain = 0
KWE2 070253Z 13005KT 07/01 A3033 RMK A01 T00650014  RH  070%=      5-min Rain = 0
KWE2 070254Z 13005KT 07/01 A3033 RMK A01 T00650013  RH  069%=      5-min Rain = 0
KWE2 070255Z 13005KT 07/01 A3033 RMK A01 T00650012  RH  069%=      5-min Rain = 0
KWE2 070256Z 13005KT 06/01 A3033 RMK A01 T00630011  RH  069%=      5-min Rain = 0
KWE2 070257Z 13005KT 06/01 A3033 RMK A01 T00620012  RH  070%=      5-min Rain = 0
KWE2 070258Z 13005KT 06/01 A3033 RMK A01 T00610011  RH  070%=      5-min Rain = 0
KWE2 070259Z 13005KT 06/01 A3033 RMK A01 T00600011  RH  071%=      5-min Rain = 0
KWE2 070300Z 13005KT 06/01 A3033 RMK A01 T00600012  RH  071%=      5-min Rain = 0
KWE2 070301Z 12004KT 06/01 A3033 RMK A01 T00600013  RH  072%=      5-min Rain = 0
KWE2 070302Z 12004KT 06/01 A3033 RMK A01 T00610013  RH  072%=      5-min Rain = 0
KWE2 070303Z 12004KT 06/01 A3033 RMK A01 T00610013  RH  071%=      5-min Rain = 0
KWE2 070304Z 12005KT 06/01 A3033 RMK A01 T00620013  RH  071%=      5-min Rain = 0
KWE2 070305Z 12004KT 06/01 A3033 RMK A01 T00640013  RH  070%=      5-min Rain = 0
KWE2 070306Z 12004KT 07/01 A3033 RMK A01 T00650014  RH  070%=      5-min Rain = 0
KWE2 070307Z 12004KT 07/01 A3033 RMK A01 T00660014  RH  069%=      5-min Rain = 0
KWE2 070308Z 13004KT 07/01 A3033 RMK A01 T00660013  RH  069%=      5-min Rain = 0
KWE2 070309Z 13004KT 07/01 A3033 RMK A01 T00670013  RH  068%=      5-min Rain = 0
KWE2 070310Z 13004KT 07/01 A3033 RMK A01 T00670013  RH  068%=      5-min Rain = 0
KWE2 070311Z 13004KT 07/01 A3033 RMK A01 T00670013  RH  068%=      5-min Rain = 0
KWE2 070312Z 13004KT 07/01 A3033 RMK A01 T00670013  RH  068%=      5-min Rain = 0
KWE2 070313Z 13004KT 07/01 A3033 RMK A01 T00660012  RH  068%=      5-min Rain = 0
KWE2 070314Z 13004KT 07/01 A3033 RMK A01 T00660012  RH  068%=      5-min Rain = 0
KWE2 070315Z 13004KT 07/01 A3033 RMK A01 T00650011  RH  069%=      5-min Rain = 0
KWE2 070316Z 13003KT 06/01 A3033 RMK A01 T00640011  RH  069%=      5-min Rain = 0
KWE2 070317Z 13003KT 06/01 A3033 RMK A01 T00620011  RH  070%=      5-min Rain = 0
KWE2 070318Z 13003KT 06/01 A3033 RMK A01 T00620011  RH  070%=      5-min Rain = 0
KWE2 070319Z 13003KT 06/01 A3033 RMK A01 T00610011  RH  070%=      5-min Rain = 0
KWE2 070320Z 13003KT 06/01 A3033 RMK A01 T00600011  RH  071%=      5-min Rain = 0
KWE2 070321Z 13003KT 06/01 A3033 RMK A01 T00590011  RH  071%=      5-min Rain = 0
KWE2 070322Z 13003KT 06/01 A3033 RMK A01 T00590011  RH  071%=      5-min Rain = 0
KWE2 070323Z 13003KT 06/01 A3033 RMK A01 T00590011  RH  072%=      5-min Rain = 0
KWE2 070324Z 14003KT 06/01 A3033 RMK A01 T00580011  RH  072%=      5-min Rain = 0
KWE2 070325Z 14002KT 06/01 A3033 RMK A01 T00580011  RH  072%=      5-min Rain = 0
KWE2 070326Z 14002KT 06/01 A3033 RMK A01 T00590012  RH  072%=      5-min Rain = 0
KWE2 070327Z 14002KT 06/01 A3033 RMK A01 T00580012  RH  072%=      5-min Rain = 0
KWE2 070328Z 14002KT 06/01 A3033 RMK A01 T00590012  RH  072%=      5-min Rain = 0
KWE2 070329Z 14002KT 06/01 A3033 RMK A01 T00580012  RH  072%=      5-min Rain = 0
KWE2 070330Z 14002KT 06/01 A3033 RMK A01 T00590012  RH  072%=      5-min Rain = 0
KWE2 070331Z 14002KT 06/01 A3033 RMK A01 T00590012  RH  072%=      5-min Rain = 0
KWE2 070332Z 15002KT 06/01 A3033 RMK A01 T00590011  RH  071%=      5-min Rain = 0
KWE2 070333Z 15003KT 06/01 A3033 RMK A01 T00590010  RH  071%=      5-min Rain = 0
KWE2 070334Z 15003KT 06/01 A3033 RMK A01 T00590011  RH  071%=      5-min Rain = 0
KWE2 070335Z 16002KT 06/01 A3033 RMK A01 T00590012  RH  071%=      5-min Rain = 0
KWE2 070336Z 16003KT 06/01 A3033 RMK A01 T00600012  RH  071%=      5-min Rain = 0
KWE2 070337Z 16003KT 06/01 A3033 RMK A01 T00610012  RH  071%=      5-min Rain = 0
KWE2 070338Z 16003KT 06/01 A3033 RMK A01 T00610011  RH  071%=      5-min Rain = 0
KWE2 070339Z 16002KT 06/01 A3033 RMK A01 T00610011  RH  071%=      5-min Rain = 0
KWE2 070340Z 16002KT 06/01 A3033 RMK A01 T00610011  RH  070%=      5-min Rain = 0
KWE2 070341Z 17002KT 06/01 A3033 RMK A01 T00600010  RH  070%=      5-min Rain = 0
KWE2 070342Z 18002KT 06/01 A3033 RMK A01 T00590009  RH  071%=      5-min Rain = 0
KWE2 070343Z 18002KT 06/01 A3033 RMK A01 T00570009  RH  071%=      5-min Rain = 0
KWE2 070344Z 18002KT 06/01 A3033 RMK A01 T00550008  RH  072%=      5-min Rain = 0
KWE2 070345Z 18003KT 05/01 A3034 RMK A01 T00540008  RH  072%=      5-min Rain = 0
KWE2 070346Z 18003KT 05/01 A3034 RMK A01 T00530008  RH  073%=      5-min Rain = 0
KWE2 070347Z 18003KT 05/01 A3034 RMK A01 T00520008  RH  073%=      5-min Rain = 0
KWE2 070348Z 18003KT 05/01 A3034 RMK A01 T00520009  RH  074%=      5-min Rain = 0
KWE2 070349Z 17004KT 05/01 A3034 RMK A01 T00510008  RH  074%=      5-min Rain = 0
KWE2 070350Z 17004KT 05/01 A3034 RMK A01 T00500008  RH  074%=      5-min Rain = 0
KWE2 070351Z 17004KT 05/01 A3034 RMK A01 T00490007  RH  074%=      5-min Rain = 0
KWE2 070352Z 17005KT 05/01 A3034 RMK A01 T00490006  RH  074%=      5-min Rain = 0
KWE2 070353Z 17005KT 05/01 A3034 RMK A01 T00480006  RH  074%=      5-min Rain = 0
KWE2 070354Z 17005KT 05/01 A3034 RMK A01 T00470006  RH  075%=      5-min Rain = 0
KWE2 070355Z 18004KT 05/01 A3034 RMK A01 T00460005  RH  075%=      5-min Rain = 0
KWE2 070356Z 18004KT 05/01 A3034 RMK A01 T00450005  RH  075%=      5-min Rain = 0
KWE2 070357Z 18004KT 05/01 A3034 RMK A01 T00450005  RH  075%=      5-min Rain = 0
KWE2 070358Z 18003KT 04/01 A3034 RMK A01 T00440005  RH  076%=      5-min Rain = 0
KWE2 070359Z 18004KT 04/01 A3034 RMK A01 T00440006  RH  076%=      5-min Rain = 0
KWE2 070400Z 17004KT 05/01 A3034 RMK A01 T00450007  RH  076%=      5-min Rain = 0
KWE2 070401Z 17004KT 05/01 A3034 RMK A01 T00450006  RH  076%=      5-min Rain = 0
KWE2 070402Z 17004KT 05/01 A3034 RMK A01 T00450006  RH  076%=      5-min Rain = 0
KWE2 070403Z 17004KT 05/01 A3034 RMK A01 T00450006  RH  076%=      5-min Rain = 0
KWE2 070404Z 17004KT 04/01 A3034 RMK A01 T00440006  RH  076%=      5-min Rain = 0
KWE2 070405Z 17004KT 04/01 A3034 RMK A01 T00440005  RH  076%=      5-min Rain = 0
KWE2 070406Z 17003KT 04/01 A3034 RMK A01 T00430005  RH  076%=      5-min Rain = 0
KWE2 070407Z 16003KT 04/01 A3034 RMK A01 T00430005  RH  077%=      5-min Rain = 0
KWE2 070408Z 16003KT 04/01 A3034 RMK A01 T00430006  RH  077%=      5-min Rain = 0
KWE2 070409Z 16003KT 04/01 A3034 RMK A01 T00430006  RH  077%=      5-min Rain = 0
KWE2 070410Z 16003KT 04/01 A3034 RMK A01 T00440007  RH  077%=      5-min Rain = 0
KWE2 070411Z 16003KT 05/01 A3034 RMK A01 T00450007  RH  076%=      5-min Rain = 0
KWE2 070412Z 16003KT 05/01 A3034 RMK A01 T00450006  RH  076%=      5-min Rain = 0
KWE2 070413Z 16003KT 05/01 A3034 RMK A01 T00450007  RH  076%=      5-min Rain = 0
KWE2 070414Z 16003KT 05/01 A3034 RMK A01 T00450007  RH  076%=      5-min Rain = 0
KWE2 070415Z 16004KT 05/01 A3034 RMK A01 T00450007  RH  076%=      5-min Rain = 0
KWE2 070416Z 16004KT 05/01 A3034 RMK A01 T00450007  RH  076%=      5-min Rain = 0
KWE2 070417Z 16004KT 05/01 A3034 RMK A01 T00450007  RH  076%=      5-min Rain = 0
KWE2 070418Z 16004KT 05/01 A3034 RMK A01 T00450007  RH  076%=      5-min Rain = 0
KWE2 070419Z 16004KT 05/01 A3034 RMK A01 T00460008  RH  076%=      5-min Rain = 0
KWE2 070420Z 17004KT 05/01 A3034 RMK A01 T00470008  RH  076%=      5-min Rain = 0
KWE2 070421Z 16005KT 05/01 A3034 RMK A01 T00470008  RH  075%=      5-min Rain = 0
KWE2 070422Z 16005KT 05/01 A3034 RMK A01 T00480008  RH  075%=      5-min Rain = 0
KWE2 070423Z 16005KT 05/01 A3034 RMK A01 T00480007  RH  075%=      5-min Rain = 0
KWE2 070424Z 16005KT 05/01 A3034 RMK A01 T00470007  RH  075%=      5-min Rain = 0
KWE2 070425Z 16005KT 05/01 A3034 RMK A01 T00470005  RH  074%=      5-min Rain = 0
KWE2 070426Z 17005KT 05/00 A3034 RMK A01 T00450003  RH  074%=      5-min Rain = 0
KWE2 070427Z 16005KT 04/00 A3034 RMK A01 T00430002  RH  075%=      5-min Rain = 0
KWE2 070428Z 16005KT 04/00 A3034 RMK A01 T00420002  RH  075%=      5-min Rain = 0
KWE2 070429Z 16005KT 04/00 A3034 RMK A01 T00410002  RH  076%=      5-min Rain = 0
KWE2 070430Z 16005KT 04/00 A3034 RMK A01 T00410004  RH  077%=      5-min Rain = 0
KWE2 070431Z 16004KT 04/01 A3034 RMK A01 T00420006  RH  077%=      5-min Rain = 0
KWE2 070432Z 15005KT 04/01 A3034 RMK A01 T00430006  RH  077%=      5-min Rain = 0
KWE2 070433Z 15005KT 04/01 A3034 RMK A01 T00430006  RH  077%=      5-min Rain = 0
KWE2 070434Z 16005KT 04/01 A3034 RMK A01 T00440006  RH  076%=      5-min Rain = 0
KWE2 070435Z 15004KT 04/01 A3034 RMK A01 T00440006  RH  076%=      5-min Rain = 0
KWE2 070436Z 15004KT 05/01 A3034 RMK A01 T00450006  RH  076%=      5-min Rain = 0
KWE2 070437Z 15004KT 05/01 A3034 RMK A01 T00450006  RH  076%=      5-min Rain = 0
KWE2 070438Z 15004KT 05/01 A3034 RMK A01 T00450007  RH  076%=      5-min Rain = 0
KWE2 070439Z 14004KT 05/01 A3034 RMK A01 T00450007  RH  076%=      5-min Rain = 0
KWE2 070440Z 15004KT 05/01 A3034 RMK A01 T00460008  RH  076%=      5-min Rain = 0
KWE2 070441Z 15004KT 05/01 A3034 RMK A01 T00480010  RH  076%=      5-min Rain = 0
KWE2 070442Z 14004KT 05/01 A3034 RMK A01 T00480008  RH  076%=      5-min Rain = 0
KWE2 070443Z 14004KT 05/01 A3034 RMK A01 T00480008  RH  075%=      5-min Rain = 0
KWE2 070444Z 13004KT 05/01 A3034 RMK A01 T00470008  RH  076%=      5-min Rain = 0
KWE2 070445Z 14004KT 05/01 A3034 RMK A01 T00460009  RH  076%=      5-min Rain = 0
KWE2 070446Z 13004KT 05/01 A3034 RMK A01 T00450008  RH  076%=      5-min Rain = 0
KWE2 070447Z 13005KT 05/01 A3034 RMK A01 T00450008  RH  077%=      5-min Rain = 0
KWE2 070448Z 13005KT 04/01 A3034 RMK A01 T00440007  RH  077%=      5-min Rain = 0
KWE2 070449Z 12005KT 04/01 A3034 RMK A01 T00430007  RH  077%=      5-min Rain = 0
KWE2 070450Z 09007KT 04/01 A3035 RMK A01 T00410007  RH  078%=      5-min Rain = 0
KWE2 070451Z 11007KT 04/01 A3035 RMK A01 T00420009  RH  079%=      5-min Rain = 0
KWE2 070452Z 13007KT 05/01 A3035 RMK A01 T00460012  RH  079%=      5-min Rain = 0
KWE2 070453Z 12007KT 05/01 A3035 RMK A01 T00490012  RH  077%=      5-min Rain = 0
KWE2 070454Z 12007KT 05/01 A3035 RMK A01 T00510012  RH  076%=      5-min Rain = 0
KWE2 070455Z 12007KT 05/01 A3035 RMK A01 T00500011  RH  076%=      5-min Rain = 0
KWE2 070456Z 12006KT 05/01 A3035 RMK A01 T00490010  RH  076%=      5-min Rain = 0
KWE2 070457Z 12006KT 05/01 A3034 RMK A01 T00470010  RH  077%=      5-min Rain = 0
KWE2 070458Z 12006KT 05/01 A3034 RMK A01 T00460009  RH  077%=      5-min Rain = 0
KWE2 070459Z 12006KT 05/01 A3034 RMK A01 T00460009  RH  077%=      5-min Rain = 0
KWE2 070500Z 12006KT 04/01 A3034 RMK A01 T00440008  RH  077%=      5-min Rain = 0
KWE2 070501Z 12007KT 04/01 A3034 RMK A01 T00440008  RH  078%=      5-min Rain = 0
KWE2 070502Z 12007KT 04/01 A3034 RMK A01 T00430008  RH  078%=      5-min Rain = 0
KWE2 070503Z 12007KT 04/01 A3034 RMK A01 T00430009  RH  078%=      5-min Rain = 0
KWE2 070504Z 13007KT 04/01 A3034 RMK A01 T00430009  RH  079%=      5-min Rain = 0
KWE2 070505Z 13007KT 04/01 A3034 RMK A01 T00430010  RH  079%=      5-min Rain = 0
KWE2 070506Z 13007KT 04/01 A3034 RMK A01 T00430010  RH  079%=      5-min Rain = 0
KWE2 070507Z 13006KT 04/01 A3034 RMK A01 T00440010  RH  079%=      5-min Rain = 0
KWE2 070508Z 13007KT 04/01 A3034 RMK A01 T00440010  RH  078%=      5-min Rain = 0
KWE2 070509Z 13006KT 05/01 A3034 RMK A01 T00450010  RH  078%=      5-min Rain = 0
KWE2 070510Z 13006KT 05/01 A3034 RMK A01 T00450010  RH  078%=      5-min Rain = 0
KWE2 070511Z 13006KT 05/01 A3034 RMK A01 T00460010  RH  077%=      5-min Rain = 0
KWE2 070512Z 13006KT 05/01 A3035 RMK A01 T00460009  RH  077%=      5-min Rain = 0
KWE2 070513Z 13006KT 05/01 A3035 RMK A01 T00450009  RH  077%=      5-min Rain = 0
KWE2 070514Z 13006KT 04/01 A3035 RMK A01 T00440008  RH  077%=      5-min Rain = 0
KWE2 070515Z 13006KT 04/01 A3035 RMK A01 T00440008  RH  078%=      5-min Rain = 0
KWE2 070516Z 13006KT 04/01 A3035 RMK A01 T00430008  RH  078%=      5-min Rain = 0
KWE2 070517Z 13006KT 04/01 A3034 RMK A01 T00430008  RH  078%=      5-min Rain = 0
KWE2 070518Z 13006KT 04/01 A3034 RMK A01 T00430008  RH  078%=      5-min Rain = 0
KWE2 070519Z 13006KT 04/01 A3034 RMK A01 T00420008  RH  078%=      5-min Rain = 0
KWE2 070520Z 13006KT 04/01 A3034 RMK A01 T00420008  RH  078%=      5-min Rain = 0
KWE2 070521Z 12006KT 04/01 A3034 RMK A01 T00420008  RH  079%=      5-min Rain = 0
KWE2 070522Z 12006KT 04/01 A3034 RMK A01 T00410007  RH  079%=      5-min Rain = 0
KWE2 070523Z 13006KT 04/01 A3034 RMK A01 T00410008  RH  079%=      5-min Rain = 0
KWE2 070524Z 12006KT 04/01 A3034 RMK A01 T00410008  RH  079%=      5-min Rain = 0
KWE2 070525Z 12007KT 04/01 A3034 RMK A01 T00410008  RH  079%=      5-min Rain = 0
KWE2 070526Z 12007KT 04/01 A3034 RMK A01 T00410007  RH  079%=      5-min Rain = 0
KWE2 070527Z 11007KT 04/01 A3034 RMK A01 T00410008  RH  079%=      5-min Rain = 0
KWE2 070528Z 11007KT 04/01 A3034 RMK A01 T00400007  RH  079%=      5-min Rain = 0
KWE2 070529Z 11007KT 04/01 A3034 RMK A01 T00380005  RH  079%=      5-min Rain = 0
KWE2 070530Z 12007KT 04/01 A3034 RMK A01 T00360005  RH  080%=      5-min Rain = 0
KWE2 070531Z 11007KT 04/01 A3033 RMK A01 T00350005  RH  081%=      5-min Rain = 0
KWE2 070532Z 12007KT 03/01 A3033 RMK A01 T00340005  RH  081%=      5-min Rain = 0
KWE2 070533Z 12007KT 03/01 A3033 RMK A01 T00340006  RH  082%=      5-min Rain = 0
KWE2 070534Z 12007KT 03/01 A3033 RMK A01 T00340006  RH  082%=      5-min Rain = 0
KWE2 070535Z 12007KT 04/01 A3033 RMK A01 T00350007  RH  082%=      5-min Rain = 0
KWE2 070536Z 12007KT 04/01 A3033 RMK A01 T00370008  RH  081%=      5-min Rain = 0
KWE2 070537Z 11007KT 04/01 A3033 RMK A01 T00380008  RH  081%=      5-min Rain = 0
KWE2 070538Z 11006KT 04/01 A3033 RMK A01 T00390008  RH  081%=      5-min Rain = 0
KWE2 070539Z 12006KT 04/01 A3033 RMK A01 T00390008  RH  080%=      5-min Rain = 0
KWE2 070540Z 12006KT 04/01 A3033 RMK A01 T00400009  RH  080%=      5-min Rain = 0
KWE2 070541Z 12006KT 04/01 A3033 RMK A01 T00390008  RH  080%=      5-min Rain = 0
KWE2 070542Z 12006KT 04/01 A3033 RMK A01 T00400008  RH  080%=      5-min Rain = 0
KWE2 070543Z 12006KT 04/01 A3033 RMK A01 T00400008  RH  080%=      5-min Rain = 0
KWE2 070544Z 13006KT 04/01 A3033 RMK A01 T00400008  RH  080%=      5-min Rain = 0
KWE2 070545Z 13006KT 04/01 A3033 RMK A01 T00390008  RH  080%=      5-min Rain = 0
KWE2 070546Z 13006KT 04/01 A3033 RMK A01 T00390008  RH  080%=      5-min Rain = 0
KWE2 070547Z 13006KT 04/01 A3033 RMK A01 T00390008  RH  080%=      5-min Rain = 0
KWE2 070548Z 13006KT 04/01 A3033 RMK A01 T00400009  RH  080%=      5-min Rain = 0
KWE2 070549Z 13006KT 04/01 A3034 RMK A01 T00390008  RH  080%=      5-min Rain = 0
KWE2 070550Z 13006KT 04/01 A3034 RMK A01 T00390008  RH  080%=      5-min Rain = 0
KWE2 070551Z 13007KT 04/01 A3034 RMK A01 T00400009  RH  080%=      5-min Rain = 0
KWE2 070552Z 13006KT 04/01 A3034 RMK A01 T00400009  RH  080%=      5-min Rain = 0
KWE2 070553Z 13006KT 04/01 A3034 RMK A01 T00410009  RH  080%=      5-min Rain = 0
KWE2 070554Z 13006KT 04/01 A3034 RMK A01 T00410009  RH  080%=      5-min Rain = 0
KWE2 070555Z 13006KT 04/01 A3034 RMK A01 T00410009  RH  080%=      5-min Rain = 0
KWE2 070556Z 13005KT 04/01 A3034 RMK A01 T00420010  RH  080%=      5-min Rain = 0
KWE2 070557Z 13005KT 04/01 A3034 RMK A01 T00420010  RH  079%=      5-min Rain = 0
KWE2 070558Z 13005KT 04/01 A3034 RMK A01 T00420009  RH  079%=      5-min Rain = 0
KWE2 070559Z 13004KT 04/01 A3034 RMK A01 T00420009  RH  079%=      5-min Rain = 0

Page generated in 0.0815 seconds.